Today's  Data File

2/19/18
Time         Wind Dir   Wind Spd  Wind Gust   Humidity    Temp In       Temp  Raw Barom   Tot Rain Wind Chill Heat Index  Dew Point   Barom SL  Press Alt  DailyRain   HourRain   24HrRain   RainRate
                            mph        mph          %         F         F         in         in         F         F         F         in         ft         in         in         in      in/hr
12:00am           107          0          0         84       73.2       35.1      30.37       5.33       35.1       39.9       30.8      30.48       -410       0.00       0.00       0.45      0.000
12:01am           107          0          0         84       73.3       35.1      30.37       5.33       35.1       39.9       30.8      30.48       -410       0.00       0.00       0.45      0.000
12:02am           107          0          0         84       73.2       35.1      30.36       5.33       35.1       39.9       30.8      30.48       -408       0.00       0.00       0.45      0.000
12:03am           107          0          0         84       73.2       35.1      30.36       5.33       35.1       39.9       30.8      30.48       -408       0.00       0.00       0.45      0.000
12:04am           107          0          0         84       73.2       35.1      30.37       5.33       35.1       39.9       30.8      30.48       -410       0.00       0.00       0.45      0.000
12:04am           107          0          0         84       73.2       35.0      30.37       5.33       35.0       39.8       30.7      30.48       -410       0.00       0.00       0.45      0.000
12:06am           107          0          0         84       73.2       35.1      30.37       5.33       35.1       39.9       30.8      30.48       -410       0.00       0.00       0.45      0.000
12:07am           107          0          0         84       73.2       35.0      30.37       5.33       35.0       39.8       30.7      30.48       -413       0.00       0.00       0.45      0.000
12:08am           107          0          0         84       73.2       35.1      30.37       5.33       35.1       39.9       30.8      30.48       -415       0.00       0.00       0.45      0.000
12:09am           107          0          0         84       73.2       35.0      30.37       5.33       35.0       39.8       30.7      30.48       -415       0.00       0.00       0.45      0.000
12:10am           107          0          0         85       73.2       35.0      30.37       5.33       35.0       39.9       31.0      30.48       -416       0.00       0.00       0.45      0.000
12:11am           107          1          1         85       73.2       35.0      30.37       5.33       35.0       39.9       31.0      30.49       -417       0.00       0.00       0.45      0.000
12:12am           107          0          0         85       73.2       35.1      30.37       5.33       35.1       40.0       31.1      30.49       -417       0.00       0.00       0.45      0.000
12:13am           107          0          1         85       73.3       35.1      30.37       5.33       35.1       40.0       31.1      30.49       -417       0.00       0.00       0.45      0.000
12:14am           107          1          1         85       73.2       35.1      30.38       5.33       35.1       40.0       31.1      30.49       -419       0.00       0.00       0.45      0.000
12:15am           107          1          2         85       73.2       35.1      30.38       5.33       35.1       40.0       31.1      30.49       -419       0.00       0.00       0.45      0.000
12:16am           107          0          1         85       73.2       35.1      30.38       5.33       35.1       40.0       31.1      30.49       -420       0.00       0.00       0.45      0.000
12:17am           107          0          1         85       73.2       35.1      30.38       5.33       35.1       40.0       31.1      30.49       -420       0.00       0.00       0.45      0.000
12:18am           107          0          1         85       73.2       35.1      30.38       5.33       35.1       40.0       31.1      30.49       -419       0.00       0.00       0.45      0.000
12:19am           107          1          1         85       73.2       35.2      30.38       5.33       35.2       40.1       31.2      30.49       -418       0.00       0.00       0.45      0.000
12:20am           107          1          1         85       73.2       35.1      30.38       5.33       35.1       40.0       31.1      30.49       -418       0.00       0.00       0.45      0.000
12:21am           107          0          1         85       73.2       35.2      30.38       5.33       35.2       40.1       31.2      30.49       -418       0.00       0.00       0.45      0.000
12:22am           107          0          1         85       73.2       35.2      30.38       5.33       35.2       40.1       31.2      30.49       -418       0.00       0.00       0.45      0.000
12:23am           107          0          1         85       73.2       35.2      30.38       5.33       35.2       40.1       31.2      30.49       -419       0.00       0.00       0.45      0.000
12:24am           107          0          0         85       73.2       35.2      30.38       5.33       35.2       40.1       31.2      30.49       -419       0.00       0.00       0.45      0.000
12:25am           107          1          1         85       73.2       35.2      30.38       5.33       35.2       40.1       31.2      30.49       -419       0.00       0.00       0.45      0.000
12:26am           107          0          1         85       73.2       35.2      30.38       5.33       35.2       40.1       31.2      30.49       -419       0.00       0.00       0.45      0.000
12:27am           107          0          0         85       73.2       35.2      30.38       5.33       35.2       40.1       31.2      30.49       -418       0.00       0.00       0.45      0.000
12:28am           107          0          0         85       73.2       35.2      30.38       5.33       35.2       40.1       31.2      30.49       -418       0.00       0.00       0.45      0.000
12:29am           107          0          0         85       73.2       35.2      30.38       5.33       35.2       40.1       31.2      30.49       -418       0.00       0.00       0.45      0.000
12:30am           107          0          1         85       73.2       35.2      30.38       5.33       35.2       40.1       31.2      30.49       -419       0.00       0.00       0.45      0.000
12:31am           107          0          0         85       73.2       35.2      30.38       5.33       35.2       40.1       31.2      30.49       -420       0.00       0.00       0.45      0.000
12:31am           107          0          0         85       73.2       35.2      30.38       5.33       35.2       40.1       31.2      30.49       -420       0.00       0.00       0.45      0.000
12:33am           107          0          1         85       73.2       35.2      30.38       5.33       35.2       40.1       31.2      30.49       -419       0.00       0.00       0.45      0.000
12:34am           107          0          0         85       73.2       35.2      30.38       5.33       35.2       40.1       31.2      30.49       -419       0.00       0.00       0.45      0.000
12:35am           107          0          0         85       73.2       35.2      30.38       5.33       35.2       40.1       31.2      30.49       -420       0.00       0.00       0.45      0.000
12:36am           107          0          0         85       73.2       35.2      30.38       5.33       35.2       40.1       31.2      30.49       -420       0.00       0.00       0.45      0.000
12:37am           107          0          0         85       73.2       35.2      30.38       5.33       35.2       40.1       31.2      30.49       -420       0.00       0.00       0.45      0.000
12:38am           107          0          0         85       73.2       35.2      30.38       5.33       35.2       40.1       31.2      30.49       -420       0.00       0.00       0.45      0.000
12:39am           107          0          0         85       73.2       35.2      30.37       5.33       35.2       40.1       31.2      30.49       -417       0.00       0.00       0.45      0.000
12:40am           107          0          0         85       73.2       35.2      30.38       5.33       35.2       40.1       31.2      30.49       -418       0.00       0.00       0.45      0.000
12:41am           107          0          0         85       73.2       35.2      30.38       5.33       35.2       40.1       31.2      30.49       -418       0.00       0.00       0.45      0.000
12:42am           107          0          0         85       73.2       35.2      30.38       5.33       35.2       40.1       31.2      30.49       -418       0.00       0.00       0.45      0.000
12:43am           107          0          0         85       73.2       35.2      30.38       5.33       35.2       40.1       31.2      30.49       -418       0.00       0.00       0.45      0.000
12:44am           107          0          0         85       73.2       35.1      30.38       5.33       35.1       40.0       31.1      30.49       -419       0.00       0.00       0.45      0.000
12:45am           107          0          0         85       73.2       35.1      30.38       5.33       35.1       40.0       31.1      30.49       -418       0.00       0.00       0.45      0.000
12:46am           107          0          0         85       73.2       35.1      30.38       5.33       35.1       40.0       31.1      30.49       -418       0.00       0.00       0.45      0.000
12:47am           107          0          0         85       73.2       35.1      30.37       5.33       35.1       40.0       31.1      30.49       -417       0.00       0.00       0.45      0.000
12:48am           107          0          0         85       73.2       35.1      30.37       5.33       35.1       40.0       31.1      30.49       -417       0.00       0.00       0.45      0.000
12:49am           107          0          0         85       73.2       35.1      30.37       5.33       35.1       40.0       31.1      30.49       -417       0.00       0.00       0.45      0.000
12:50am           107          0          0         85       73.2       35.0      30.37       5.33       35.0       39.9       31.0      30.49       -417       0.00       0.00       0.45      0.000
12:51am           107          0          0         85       73.2       35.0      30.37       5.33       35.0       39.9       31.0      30.49       -417       0.00       0.00       0.45      0.000
12:52am           107          0          0         85       73.2       35.0      30.37       5.33       35.0       39.9       31.0      30.49       -417       0.00       0.00       0.45      0.000
12:53am           107          0          0         85       73.2       35.0      30.37       5.33       35.0       39.9       31.0      30.49       -417       0.00       0.00       0.45      0.000
12:54am           107          0          0         85       73.2       35.0      30.37       5.33       35.0       39.9       31.0      30.48       -416       0.00       0.00       0.45      0.000
12:55am           107          0          0         85       73.2       34.9      30.37       5.33       34.9       39.8       30.9      30.48       -416       0.00       0.00       0.45      0.000
12:56am           107          0          0         85       73.2       34.9      30.37       5.33       34.9       39.8       30.9      30.48       -416       0.00       0.00       0.45      0.000
12:57am           107          0          0         85       73.2       34.9      30.37       5.33       34.9       39.8       30.9      30.48       -415       0.00       0.00       0.45      0.000
12:58am           107          0          0         85       73.2       34.8      30.37       5.33       34.8       39.7       30.8      30.48       -414       0.00       0.00       0.45      0.000
12:59am           107          0          0         85       73.2       34.8      30.37       5.33       34.8       39.7       30.8      30.48       -413       0.00       0.00       0.45      0.000
1:00am            107          0          0         85       73.2       34.8      30.37       5.33       34.8       39.7       30.8      30.48       -413       0.00       0.00       0.45      0.000
1:01am            107          0          0         85       73.2       34.8      30.37       5.33       34.8       39.7       30.8      30.48       -413       0.00       0.00       0.44      0.000
1:02am            107          0          0         85       73.2       34.8      30.37       5.33       34.8       39.7       30.8      30.48       -413       0.00       0.00       0.44      0.000
1:03am            107          0          0         85       73.2       34.7      30.37       5.33       34.7       39.6       30.7      30.48       -415       0.00       0.00       0.44      0.000
1:04am            107          0          0         85       73.2       34.7      30.37       5.33       34.7       39.6       30.7      30.48       -415       0.00       0.00       0.44      0.000
1:05am            107          0          0         85       73.2       34.7      30.37       5.33       34.7       39.6       30.7      30.48       -415       0.00       0.00       0.44      0.000
1:06am            107          0          0         85       73.2       34.6      30.37       5.33       34.6       39.5       30.6      30.48       -415       0.00       0.00       0.44      0.000
1:07am            107          0          0         85       73.2       34.6      30.37       5.33       34.6       39.5       30.6      30.48       -415       0.00       0.00       0.44      0.000
1:08am            107          0          0         85       73.2       34.5      30.37       5.33       34.5       39.4       30.5      30.48       -414       0.00       0.00       0.44      0.000
1:09am            107          0          0         85       73.2       34.5      30.37       5.33       34.5       39.4       30.5      30.48       -414       0.00       0.00       0.44      0.000
1:10am            107          0          0         85       73.2       34.5      30.37       5.33       34.5       39.4       30.5      30.48       -412       0.00       0.00       0.44      0.000
1:11am            107          0          0         85       73.2       34.4      30.37       5.33       34.4       39.3       30.4      30.48       -412       0.00       0.00       0.44      0.000
1:12am            107          0          0         85       73.2       34.4      30.37       5.33       34.4       39.3       30.4      30.48       -411       0.00       0.00       0.44      0.000
1:13am            107          0          0         85       73.2       34.4      30.37       5.33       34.4       39.3       30.4      30.48       -413       0.00       0.00       0.44      0.000
1:14am            107          0          0         85       73.2       34.3      30.37       5.33       34.3       39.2       30.3      30.48       -415       0.00       0.00       0.44      0.000
1:15am            107          0          0         85       73.2       34.3      30.37       5.33       34.3       39.2       30.3      30.48       -414       0.00       0.00       0.44      0.000
1:16am            107          0          0         85       73.2       34.3      30.37       5.33       34.3       39.2       30.3      30.48       -415       0.00       0.00       0.44      0.000
1:17am            107          0          0         85       73.2       34.2      30.37       5.33       34.2       39.1       30.2      30.48       -414       0.00       0.00       0.44      0.000
1:18am            107          0          0         85       73.2       34.2      30.37       5.33       34.2       39.1       30.2      30.48       -413       0.00       0.00       0.44      0.000
1:19am            107          0          0         85       73.2       34.1      30.37       5.33       34.1       39.0       30.1      30.48       -412       0.00       0.00       0.44      0.000
1:20am            107          0          0         85       73.2       34.1      30.37       5.33       34.1       39.0       30.1      30.48       -412       0.00       0.00       0.44      0.000
1:21am            107          0          0         85       73.2       34.1      30.37       5.33       34.1       39.0       30.1      30.48       -413       0.00       0.00       0.44      0.000
1:22am            107          0          0         85       73.2       34.1      30.37       5.33       34.1       39.0       30.1      30.48       -412       0.00       0.00       0.44      0.000
1:23am            107          0          0         85       73.2       34.0      30.37       5.33       34.0       38.9       30.0      30.48       -411       0.00       0.00       0.44      0.000
1:23am            107          0          0         85       73.2       34.0      30.37       5.33       34.0       38.9       30.0      30.48       -411       0.00       0.00       0.44      0.000
1:25am            107          0          0         85       73.2       34.0      30.37       5.33       34.0       38.9       30.0      30.48       -411       0.00       0.00       0.44      0.000
1:26am            107          0          0         85       73.2       33.9      30.37       5.33       33.9       38.8       29.9      30.48       -411       0.00       0.00       0.44      0.000
1:27am            107          0          0         85       73.2       33.9      30.37       5.33       33.9       38.8       29.9      30.48       -412       0.00       0.00       0.44      0.000
1:28am            107          0          0         85       73.2       33.9      30.37       5.33       33.9       38.8       29.9      30.48       -414       0.00       0.00       0.44      0.000
1:29am            107          0          0         85       73.2       33.9      30.37       5.33       33.9       38.8       29.9      30.48       -415       0.00       0.00       0.44      0.000
1:30am            107          0          0         85       73.1       33.9      30.37       5.33       33.9       38.8       29.9      30.48       -416       0.00       0.00       0.44      0.000
1:31am            107          0          0         85       73.2       33.8      30.37       5.33       33.8       38.7       29.8      30.48       -415       0.00       0.00       0.44      0.000
1:32am            107          0          0         85       73.1       33.8      30.37       5.33       33.8       38.7       29.8      30.48       -414       0.00       0.00       0.44      0.000
1:33am            107          0          0         85       73.1       33.8      30.37       5.33       33.8       38.7       29.8      30.48       -414       0.00       0.00       0.44      0.000
1:34am            107          0          0         85       73.1       33.8      30.37       5.33       33.8       38.7       29.8      30.48       -413       0.00       0.00       0.44      0.000
1:35am            107          0          0         85       73.1       33.7      30.37       5.33       33.7       38.6       29.7      30.48       -413       0.00       0.00       0.44      0.000
1:36am            107          0          0         85       73.1       33.7      30.37       5.33       33.7       38.6       29.7      30.48       -413       0.00       0.00       0.44      0.000
1:37am            107          0          0         85       73.1       33.7      30.37       5.33       33.7       38.6       29.7      30.48       -413       0.00       0.00       0.44      0.000
1:38am            107          0          0         86       73.2       33.7      30.37       5.33       33.7       38.8       30.0      30.48       -413       0.00       0.00       0.44      0.000
1:39am            107          0          0         86       73.1       33.7      30.37       5.33       33.7       38.8       30.0      30.48       -414       0.00       0.00       0.44      0.000
1:40am            107          0          0         86       73.1       33.7      30.37       5.33       33.7       38.8       30.0      30.48       -414       0.00       0.00       0.44      0.000
1:41am            107          0          0         86       73.1       33.7      30.37       5.33       33.7       38.8       30.0      30.48       -414       0.00       0.00       0.44      0.000
1:42am            107          0          0         86       73.1       33.7      30.37       5.33       33.7       38.8       30.0      30.48       -414       0.00       0.00       0.44      0.000
1:43am            107          0          0         86       73.1       33.6      30.37       5.33       33.6       38.7       29.9      30.48       -414       0.00       0.00       0.44      0.000
1:44am            107          0          0         86       73.1       33.6      30.37       5.33       33.6       38.7       29.9      30.48       -415       0.00       0.00       0.44      0.000
1:45am            107          0          0         86       73.1       33.6      30.37       5.33       33.6       38.7       29.9      30.48       -416       0.00       0.00       0.44      0.000
1:46am            107          0          0         86       73.1       33.6      30.37       5.33       33.6       38.7       29.9      30.48       -416       0.00       0.00       0.44      0.000
1:47am            107          0          0         86       73.2       33.6      30.37       5.33       33.6       38.7       29.9      30.49       -417       0.00       0.00       0.44      0.000
1:48am            107          0          0         86       73.2       33.5      30.37       5.33       33.5       38.6       29.8      30.49       -417       0.00       0.00       0.44      0.000
1:49am            107          0          0         86       73.1       33.5      30.37       5.33       33.5       38.6       29.8      30.49       -417       0.00       0.00       0.44      0.000
1:50am            107          0          0         86       73.1       33.5      30.37       5.33       33.5       38.6       29.8      30.48       -415       0.00       0.00       0.44      0.000
1:51am            107          0          0         86       73.1       33.5      30.37       5.33       33.5       38.6       29.8      30.48       -415       0.00       0.00       0.44      0.000
1:52am            107          0          0         86       73.1       33.5      30.37       5.33       33.5       38.6       29.8      30.48       -413       0.00       0.00       0.43      0.000
1:53am            107          0          0         86       73.1       33.5      30.37       5.33       33.5       38.6       29.8      30.48       -412       0.00       0.00       0.43      0.000
1:54am            107          0          0         86       73.1       33.5      30.37       5.33       33.5       38.6       29.8      30.48       -411       0.00       0.00       0.43      0.000
1:55am            107          0          0         86       73.2       33.5      30.37       5.33       33.5       38.6       29.8      30.48       -411       0.00       0.00       0.43      0.000
1:56am            107          0          0         87       73.2       33.5      30.37       5.33       33.5       38.7       30.1      30.48       -413       0.00       0.00       0.43      0.000
1:57am            107          0          0         87       73.1       33.5      30.37       5.33       33.5       38.7       30.1      30.48       -412       0.00       0.00       0.43      0.000
1:58am            107          0          0         87       73.1       33.5      30.37       5.33       33.5       38.7       30.1      30.48       -412       0.00       0.00       0.43      0.000
1:59am            107          0          0         87       73.1       33.6      30.37       5.33       33.6       38.8       30.2      30.48       -412       0.00       0.00       0.43      0.000
2:00am            107          0          0         87       73.1       33.6      30.37       5.33       33.6       38.8       30.2      30.48       -410       0.00       0.00       0.43      0.000
2:01am            107          0          0         87       73.1       33.5      30.36       5.33       33.5       38.7       30.1      30.48       -407       0.00       0.00       0.43      0.000
2:02am            107          0          0         87       73.1       33.6      30.36       5.33       33.6       38.8       30.2      30.48       -408       0.00       0.00       0.43      0.000
2:03am            107          0          0         87       73.1       33.6      30.37       5.33       33.6       38.8       30.2      30.48       -410       0.00       0.00       0.43      0.000
2:04am            107          0          0         87       73.1       33.6      30.37       5.33       33.6       38.8       30.2      30.48       -411       0.00       0.00       0.43      0.000
2:05am            107          0          0         87       73.1       33.6      30.37       5.33       33.6       38.8       30.2      30.48       -411       0.00       0.00       0.43      0.000
2:06am            107          0          0         87       73.1       33.6      30.37       5.33       33.6       38.8       30.2      30.48       -411       0.00       0.00       0.43      0.000
2:07am            107          0          0         87       73.1       33.6      30.37       5.33       33.6       38.8       30.2      30.48       -412       0.00       0.00       0.43      0.000
2:08am            107          0          0         87       73.1       33.6      30.37       5.33       33.6       38.8       30.2      30.48       -413       0.00       0.00       0.43      0.000
2:08am            107          0          0         87       73.1       33.6      30.37       5.33       33.6       38.8       30.2      30.48       -413       0.00       0.00       0.43      0.000
2:10am            107          0          0         87       73.1       33.6      30.37       5.33       33.6       38.8       30.2      30.48       -414       0.00       0.00       0.43      0.000
2:11am            107          0          0         87       73.1       33.7      30.37       5.33       33.7       38.9       30.2      30.48       -414       0.00       0.00       0.43      0.000
2:12am            107          0          0         87       73.1       33.7      30.37       5.33       33.7       38.9       30.2      30.48       -416       0.00       0.00       0.43      0.000
2:13am            107          0          0         87       73.1       33.6      30.37       5.33       33.6       38.8       30.2      30.48       -415       0.00       0.00       0.43      0.000
2:14am            107          0          0         88       73.1       33.7      30.37       5.33       33.7       39.0       30.5      30.48       -414       0.00       0.00       0.43      0.000
2:15am            107          0          0         88       73.1       33.7      30.37       5.33       33.7       39.0       30.5      30.48       -412       0.00       0.00       0.43      0.000
2:16am            107          0          0         88       73.1       33.7      30.37       5.33       33.7       39.0       30.5      30.48       -412       0.00       0.00       0.43      0.000
2:17am            107          0          0         88       73.1       33.7      30.37       5.33       33.7       39.0       30.5      30.48       -410       0.00       0.00       0.43      0.000
2:18am            107          0          0         88       73.1       33.7      30.37       5.33       33.7       39.0       30.5      30.48       -412       0.00       0.00       0.43      0.000
2:19am            107          0          0         88       73.1       33.7      30.37       5.33       33.7       39.0       30.5      30.48       -412       0.00       0.00       0.43      0.000
2:20am            107          0          0         88       73.1       33.8      30.37       5.33       33.8       39.1       30.6      30.48       -414       0.00       0.00       0.43      0.000
2:21am            107          0          0         88       73.1       33.8      30.37       5.33       33.8       39.1       30.6      30.48       -414       0.00       0.00       0.43      0.000
2:22am            107          0          0         88       73.1       33.8      30.37       5.33       33.8       39.1       30.6      30.48       -414       0.00       0.00       0.43      0.000
2:23am            107          0          0         88       73.1       33.9      30.37       5.33       33.9       39.2       30.7      30.48       -414       0.00       0.00       0.43      0.000
2:24am            107          0          0         88       73.1       33.9      30.37       5.33       33.9       39.2       30.7      30.48       -413       0.00       0.00       0.43      0.000
2:25am            107          0          0         88       73.1       33.9      30.37       5.33       33.9       39.2       30.7      30.48       -415       0.00       0.00       0.43      0.000
2:26am            107          0          0         88       73.1       33.9      30.37       5.33       33.9       39.2       30.7      30.48       -414       0.00       0.00       0.43      0.000
2:27am            107          0          0         89       73.1       33.9      30.37       5.33       33.9       39.4       31.0      30.48       -414       0.00       0.00       0.43      0.000
2:28am            107          0          0         89       73.1       34.0      30.37       5.33       34.0       39.5       31.1      30.48       -414       0.00       0.00       0.42      0.000
2:29am            107          0          0         89       73.1       34.0      30.37       5.33       34.0       39.5       31.1      30.48       -413       0.00       0.00       0.42      0.000
2:30am            107          0          0         89       73.1       34.0      30.37       5.33       34.0       39.5       31.1      30.48       -413       0.00       0.00       0.42      0.000
2:31am            107          0          0         89       73.1       34.0      30.37       5.33       34.0       39.5       31.1      30.48       -412       0.00       0.00       0.42      0.000
2:32am            107          0          0         89       73.1       34.1      30.37       5.33       34.1       39.6       31.2      30.48       -411       0.00       0.00       0.42      0.000
2:33am            107          0          0         89       73.1       34.1      30.37       5.33       34.1       39.6       31.2      30.48       -412       0.00       0.00       0.42      0.000
2:34am            107          0          0         89       73.1       34.1      30.37       5.33       34.1       39.6       31.2      30.48       -412       0.00       0.00       0.42      0.000
2:35am            107          0          0         89       73.1       34.1      30.37       5.33       34.1       39.6       31.2      30.48       -413       0.00       0.00       0.42      0.000
2:36am            107          0          0         89       73.1       34.2      30.37       5.33       34.2       39.7       31.3      30.48       -413       0.00       0.00       0.42      0.000
2:37am            107          0          0         89       73.1       34.2      30.37       5.33       34.2       39.7       31.3      30.48       -413       0.00       0.00       0.42      0.000
2:38am            107          0          0         89       73.1       34.2      30.37       5.33       34.2       39.7       31.3      30.48       -414       0.00       0.00       0.42      0.000
2:39am            107          0          0         89       73.1       34.3      30.37       5.33       34.3       39.8       31.4      30.48       -414       0.00       0.00       0.42      0.000
2:40am            107          0          0         89       73.1       34.3      30.37       5.33       34.3       39.8       31.4      30.48       -415       0.00       0.00       0.42      0.000
2:41am            107          0          0         89       73.1       34.3      30.37       5.33       34.3       39.8       31.4      30.48       -412       0.00       0.00       0.42      0.000
2:42am            107          0          0         89       73.1       34.4      30.37       5.33       34.4       39.9       31.5      30.48       -413       0.00       0.00       0.42      0.000
2:43am            107          0          0         89       73.1       34.4      30.37       5.33       34.4       39.9       31.5      30.48       -412       0.00       0.00       0.42      0.000
2:44am            107          0          0         89       73.1       34.4      30.37       5.33       34.4       39.9       31.5      30.48       -413       0.00       0.00       0.42      0.000
2:45am            107          0          0         90       73.1       34.5      30.37       5.33       34.5       40.1       31.9      30.48       -412       0.00       0.00       0.42      0.000
2:46am            107          0          0         90       73.1       34.5      30.37       5.33       34.5       40.1       31.9      30.48       -412       0.00       0.00       0.42      0.000
2:47am            107          0          0         90       73.1       34.6      30.37       5.33       34.6       40.2       32.0      30.48       -413       0.00       0.00       0.42      0.000
2:48am            107          0          0         90       73.1       34.6      30.37       5.33       34.6       40.2       32.0      30.48       -414       0.00       0.00       0.42      0.000
2:49am            107          0          0         90       73.1       34.7      30.37       5.33       34.7       40.3       32.1      30.48       -412       0.00       0.00       0.42      0.000
2:50am            107          0          0         90       73.1       34.7      30.37       5.33       34.7       40.3       32.1      30.48       -411       0.00       0.00       0.42      0.000
2:51am            107          0          0         90       73.1       34.8      30.37       5.33       34.8       40.4       32.2      30.48       -411       0.00       0.00       0.42      0.000
2:52am            107          0          0         90       73.1       34.8      30.37       5.33       34.8       40.4       32.2      30.48       -410       0.00       0.00       0.42      0.000
2:53am            107          0          0         90       73.1       34.8      30.37       5.33       34.8       40.4       32.2      30.48       -411       0.00       0.00       0.42      0.000
2:54am            107          0          0         90       73.1       34.9      30.37       5.33       34.9       40.5       32.3      30.48       -410       0.00       0.00       0.42      0.000
2:55am            107          0          0         90       73.1       35.0      30.37       5.33       35.0       40.6       32.4      30.48       -410       0.00       0.00       0.42      0.000
2:56am            107          0          0         90       73.1       35.0      30.36       5.33       35.0       40.6       32.4      30.48       -408       0.00       0.00       0.42      0.000
2:57am            107          0          0         90       73.1       35.1      30.36       5.33       35.1       40.7       32.5      30.48       -408       0.00       0.00       0.42      0.000
2:58am            107          0          0         90       73.1       35.1      30.36       5.33       35.1       40.7       32.5      30.48       -408       0.00       0.00       0.42      0.000
2:59am            107          0          0         90       73.1       35.2      30.37       5.33       35.2       40.8       32.6      30.48       -410       0.00       0.00       0.42      0.000
3:00am            107          0          0         90       73.1       35.2      30.37       5.33       35.2       40.8       32.6      30.48       -411       0.00       0.00       0.42      0.000
3:01am            107          0          0         90       73.1       35.2      30.37       5.33       35.2       40.8       32.6      30.48       -410       0.00       0.00       0.42      0.000
3:02am            107          0          0         90       73.1       35.3      30.37       5.33       35.3       40.9       32.7      30.48       -411       0.00       0.00       0.42      0.000
3:03am            107          0          0         90       73.1       35.3      30.37       5.33       35.3       40.9       32.7      30.48       -412       0.00       0.00       0.42      0.000
3:04am            107          0          0         90       73.1       35.4      30.37       5.33       35.4       41.0       32.8      30.48       -411       0.00       0.00       0.42      0.000
3:05am            107          0          0         90       73.1       35.4      30.37       5.33       35.4       41.0       32.8      30.48       -411       0.00       0.00       0.42      0.000
3:06am            107          0          0         90       73.1       35.5      30.37       5.33       35.5       41.1       32.9      30.48       -412       0.00       0.00       0.42      0.000
3:07am            107          0          0         90       73.1       35.5      30.37       5.33       35.5       41.1       32.9      30.48       -411       0.00       0.00       0.42      0.000
3:08am            107          0          0         90       73.1       35.6      30.37       5.33       35.6       41.2       33.0      30.48       -410       0.00       0.00       0.42      0.000
3:09am            107          0          0         90       73.1       35.6      30.37       5.33       35.6       41.2       33.0      30.48       -411       0.00       0.00       0.42      0.000
3:10am            107          0          0         90       73.1       35.7      30.37       5.33       35.7       41.3       33.1      30.48       -410       0.00       0.00       0.42      0.000
3:11am            107          0          0         90       73.1       35.7      30.37       5.33       35.7       41.3       33.1      30.48       -410       0.00       0.00       0.42      0.000
3:12am            116          1          3         91       73.1       35.9      30.36       5.33       35.9       41.7       33.5      30.48       -407       0.00       0.00       0.42      0.000
3:13am            181          2          4         90       73.1       35.9      30.37       5.33       35.3       41.5       33.3      30.48       -410       0.00       0.00       0.42      0.000
3:14am            221          2          3         90       73.1       36.0      30.37       5.33       35.4       41.6       33.4      30.48       -411       0.00       0.00       0.42      0.000
3:15am            220          3          3         90       73.1       36.1      30.37       5.33       34.0       41.7       33.5      30.48       -412       0.00       0.00       0.42      0.000
3:16am            165          4          4         91       73.1       36.2      30.37       5.33       32.9       42.0       33.8      30.48       -412       0.00       0.00       0.42      0.000
3:17am            115          3          5         91       73.1       36.4      30.37       5.33       34.3       42.2       34.0      30.48       -410       0.00       0.00       0.42      0.000
3:17am            184          1          4         91       73.1       36.5      30.37       5.33       36.5       42.3       34.1      30.48       -410       0.00       0.00       0.42      0.000
3:19am            139          3          3         90       73.1       36.6      30.37       5.33       34.5       42.2       34.0      30.48       -410       0.00       0.00       0.42      0.000
3:20am            161          2          3         90       73.1       36.8      30.37       5.33       36.2       42.4       34.1      30.48       -410       0.00       0.00       0.42      0.000
3:21am            112          3          3         90       73.1       36.9      30.36       5.33       34.9       42.5       34.2      30.48       -408       0.00       0.00       0.42      0.000
3:22am            113          3          3         90       73.1       37.0      30.36       5.33       35.0       42.6       34.3      30.48       -407       0.00       0.00       0.42      0.000
3:22am            113          2          3         90       73.1       37.1      30.36       5.33       36.6       42.7       34.4      30.48       -407       0.00       0.00       0.42      0.000
3:24am            136          2          3         90       73.1       37.1      30.36       5.33       36.6       42.7       34.4      30.48       -407       0.00       0.00       0.42      0.000
3:25am            136          1          2         90       73.1       37.2      30.36       5.33       37.2       42.8       34.5      30.47       -407       0.00       0.00       0.42      0.000
3:26am            136          2          2         90       73.1       37.3      30.36       5.33       36.8       42.9       34.6      30.47       -406       0.00       0.00       0.42      0.000
3:27am            136          1          3         90       73.1       37.3      30.36       5.33       37.3       42.9       34.6      30.47       -407       0.00       0.00       0.42      0.000
3:28am            136          2          2         90       73.1       37.4      30.36       5.33       36.9       43.0       34.7      30.47       -407       0.00       0.00       0.42      0.000
3:29am            136          1          2         89       73.1       37.5      30.36       5.33       37.5       43.0       34.6      30.48       -407       0.00       0.00       0.42      0.000
3:30am            136          1          2         89       73.1       37.5      30.36       5.33       37.5       43.0       34.6      30.48       -407       0.00       0.00       0.42      0.000
3:30am            136          2          2         89       73.1       37.6      30.36       5.33       37.1       43.1       34.7      30.48       -407       0.00       0.00       0.42      0.000
3:32am            136          2          2         89       73.1       37.7      30.36       5.33       37.2       43.2       34.8      30.47       -406       0.00       0.00       0.42      0.000
3:33am            136          2          3         89       73.1       37.7      30.36       5.33       37.2       43.2       34.8      30.47       -406       0.00       0.00       0.42      0.000
3:34am            136          1          2         89       73.1       37.8      30.36       5.33       37.8       43.3       34.9      30.47       -405       0.00       0.00       0.42      0.000
3:35am            136          2          2         89       73.1       37.8      30.36       5.33       37.3       43.3       34.9      30.47       -404       0.00       0.00       0.42      0.000
3:36am            136          1          2         89       73.2       37.9      30.36       5.33       37.9       43.4       35.0      30.47       -402       0.00       0.00       0.42      0.000
3:37am            136          1          2         89       73.1       37.9      30.36       5.33       37.9       43.4       35.0      30.47       -404       0.00       0.00       0.42      0.000
3:38am            136          0          1         89       73.1       37.9      30.36       5.33       37.9       43.4       35.0      30.47       -404       0.00       0.00       0.42      0.000
3:39am            136          1          1         88       73.1       38.0      30.36       5.33       38.0       43.3       34.8      30.47       -404       0.00       0.00       0.42      0.000
3:40am            136          1          2         88       73.2       38.0      30.36       5.33       38.0       43.3       34.8      30.47       -402       0.00       0.00       0.42      0.000
3:41am            191          2          3         88       73.1       38.0      30.36       5.33       37.6       43.3       34.8      30.47       -402       0.00       0.00       0.42      0.000
3:42am            191          1          2         88       73.1       38.1      30.36       5.33       38.1       43.4       34.9      30.47       -400       0.00       0.00       0.42      0.000
3:43am            174          3          3         88       73.1       38.1      30.36       5.33       36.2       43.4       34.9      30.47       -400       0.00       0.00       0.42      0.000
3:44am            186          3          4         88       73.1       38.1      30.36       5.33       36.2       43.4       34.9      30.47       -400       0.00       0.00       0.42      0.000
3:45am            195          2          3         88       73.1       38.2      30.36       5.33       37.8       43.5       35.0      30.47       -400       0.00       0.00       0.42      0.000
3:46am            153          2          3         87       73.1       38.2      30.36       5.33       37.8       43.4       34.7      30.47       -400       0.00       0.00       0.42      0.000
3:47am            184          2          3         87       73.1       38.3      30.35       5.33       37.9       43.5       34.8      30.47       -399       0.00       0.00       0.42      0.000
3:48am            163          4          4         87       73.1       38.3      30.35       5.33       35.4       43.5       34.8      30.47       -399       0.00       0.00       0.42      0.000
3:49am            162          1          4         87       73.1       38.3      30.35       5.33       38.3       43.5       34.8      30.47       -399       0.00       0.00       0.42      0.000
3:50am            162          1          2         87       73.1       38.4      30.36       5.33       38.4       43.6       34.9      30.47       -401       0.00       0.00       0.42      0.000
3:51am            162          1          2         87       73.1       38.4      30.36       5.33       38.4       43.6       34.9      30.47       -403       0.00       0.00       0.42      0.000
3:52am            160          1          2         86       73.1       38.4      30.36       5.33       38.4       43.5       34.6      30.47       -403       0.00       0.00       0.42      0.000
3:53am            167          2          3         86       73.1       38.5      30.36       5.33       38.1       43.6       34.7      30.47       -406       0.00       0.00       0.42      0.000
3:54am            149          1          3         86       73.1       38.5      30.36       5.33       38.5       43.6       34.7      30.48       -407       0.00       0.00       0.42      0.000
3:55am            153          2          3         86       73.1       38.6      30.37       5.33       38.2       43.7       34.8      30.48       -410       0.00       0.00       0.42      0.000
3:56am            165          1          3         86       73.1       38.6      30.37       5.33       38.6       43.7       34.8      30.48       -410       0.00       0.00       0.42      0.000
3:57am            164          4          4         86       73.2       38.6      30.37       5.33       35.7       43.7       34.8      30.48       -410       0.00       0.00       0.42      0.000
3:58am            164          1          4         85       73.1       38.7      30.36       5.33       38.7       43.6       34.6      30.48       -407       0.00       0.00       0.42      0.000
3:59am            164          1          2         85       73.1       38.7      30.36       5.33       38.7       43.6       34.6      30.48       -407       0.00       0.00       0.42      0.000
4:00am            164          1          2         85       73.2       38.7      30.36       5.33       38.7       43.6       34.6      30.48       -408       0.00       0.00       0.42      0.000
4:01am            149          1          2         85       73.1       38.7      30.36       5.33       38.7       43.6       34.6      30.48       -408       0.00       0.00       0.42      0.000
4:02am            149          0          2         85       73.2       38.7      30.37       5.33       38.7       43.6       34.6      30.48       -410       0.00       0.00       0.42      0.000
4:03am            149          1          2         85       73.1       38.8      30.37       5.33       38.8       43.7       34.7      30.48       -410       0.00       0.00       0.42      0.000
4:04am            149          1          2         85       73.1       38.8      30.37       5.33       38.8       43.7       34.7      30.48       -411       0.00       0.00       0.42      0.000
4:05am            149          1          2         84       73.1       38.8      30.37       5.33       38.8       43.6       34.4      30.48       -410       0.00       0.00       0.41      0.000
4:06am            149          1          2         84       73.1       38.8      30.37       5.33       38.8       43.6       34.4      30.48       -410       0.00       0.00       0.41      0.000
4:07am            149          1          2         84       73.2       38.9      30.37       5.33       38.9       43.7       34.5      30.48       -410       0.00       0.00       0.41      0.000
4:08am            149          1          2         84       73.2       38.9      30.37       5.33       38.9       43.7       34.5      30.48       -411       0.00       0.00       0.41      0.000
4:09am            193          3          3         84       73.2       38.9      30.37       5.33       37.1       43.7       34.5      30.48       -411       0.00       0.00       0.41      0.000
4:10am            193          2          3         84       73.1       38.9      30.36       5.33       38.6       43.7       34.5      30.48       -408       0.00       0.00       0.41      0.000
4:11am            191          2          3         84       73.2       38.9      30.36       5.33       38.6       43.7       34.5      30.48       -407       0.00       0.00       0.41      0.000
4:12am            191          2          2         84       73.1       39.0      30.37       5.33       38.7       43.8       34.6      30.48       -410       0.00       0.00       0.41      0.000
4:13am            124          3          3         84       73.1       39.0      30.37       5.33       37.2       43.8       34.6      30.48       -410       0.00       0.00       0.41      0.000
4:14am            159          3          4         83       73.1       39.0      30.36       5.33       37.2       43.6       34.3      30.47       -407       0.00       0.00       0.41      0.000
4:15am            159          1          3         83       73.1       39.0      30.36       5.33       39.0       43.6       34.3      30.47       -406       0.00       0.00       0.41      0.000
4:16am            159          1          2         83       73.1       39.0      30.36       5.33       39.0       43.6       34.3      30.47       -405       0.00       0.00       0.41      0.000
4:17am            159          2          2         83       73.1       39.1      30.36       5.33       38.8       43.7       34.4      30.47       -407       0.00       0.00       0.41      0.000
4:18am            159          1          2         83       73.1       39.1      30.36       5.33       39.1       43.7       34.4      30.48       -407       0.00       0.00       0.41      0.000
4:19am            159          1          1         83       73.1       39.1      30.36       5.33       39.1       43.7       34.4      30.48       -407       0.00       0.00       0.41      0.000
4:20am            159          1          2         83       73.1       39.1      30.36       5.33       39.1       43.7       34.4      30.48       -407       0.00       0.00       0.41      0.000
4:21am            159          1          2         83       73.1       39.1      30.36       5.33       39.1       43.7       34.4      30.48       -407       0.00       0.00       0.41      0.000
4:22am            159          0          1         83       73.1       39.1      30.36       5.33       39.1       43.7       34.4      30.48       -407       0.00       0.00       0.41      0.000
4:23am            159          1          2         83       73.1       39.1      30.36       5.33       39.1       43.7       34.4      30.48       -408       0.00       0.00       0.41      0.000
4:24am            159          1          1         83       73.1       39.1      30.36       5.33       39.1       43.7       34.4      30.48       -408       0.00       0.00       0.41      0.000
4:25am            159          1          2         83       73.1       39.1      30.37       5.33       39.1       43.7       34.4      30.48       -410       0.00       0.00       0.41      0.000
4:26am            159          2          3         82       73.1       39.1      30.36       5.33       38.8       43.6       34.1      30.48       -408       0.00       0.00       0.41      0.000
4:27am            159          2          3         82       73.1       39.2      30.36       5.33       38.9       43.7       34.2      30.47       -406       0.00       0.00       0.41      0.000
4:28am            159          1          2         82       73.1       39.2      30.36       5.33       39.2       43.7       34.2      30.47       -404       0.00       0.00       0.41      0.000
4:29am            159          1          2         82       73.1       39.2      30.36       5.33       39.2       43.7       34.2      30.47       -402       0.00       0.00       0.41      0.000
4:30am            159          1          2         82       73.1       39.2      30.36       5.33       39.2       43.7       34.2      30.47       -403       0.00       0.00       0.41      0.000
4:31am            159          0          2         82       73.1       39.2      30.36       5.33       39.2       43.7       34.2      30.47       -406       0.00       0.00       0.41      0.000
4:32am            159          1          1         82       73.1       39.2      30.36       5.33       39.2       43.7       34.2      30.47       -407       0.00       0.00       0.41      0.000
4:33am            159          0          1         82       73.1       39.2      30.36       5.33       39.2       43.7       34.2      30.47       -406       0.00       0.00       0.41      0.000
4:34am            159          1          2         82       73.1       39.2      30.36       5.33       39.2       43.7       34.2      30.47       -406       0.00       0.00       0.41      0.000
4:35am            159          1          1         82       73.1       39.2      30.36       5.33       39.2       43.7       34.2      30.47       -407       0.00       0.00       0.41      0.000
4:36am            159          1          2         82       73.1       39.2      30.36       5.33       39.2       43.7       34.2      30.48       -407       0.00       0.00       0.41      0.000
4:37am            159          1          2         82       73.1       39.3      30.36       5.33       39.3       43.8       34.3      30.48       -408       0.00       0.00       0.41      0.000
4:38am            159          0          1         82       73.1       39.2      30.36       5.33       39.2       43.7       34.2      30.48       -408       0.00       0.00       0.41      0.000
4:39am            159          1          2         82       73.1       39.2      30.36       5.33       39.2       43.7       34.2      30.47       -406       0.00       0.00       0.41      0.000
4:40am            159          1          2         82       73.1       39.2      30.36       5.33       39.2       43.7       34.2      30.47       -404       0.00       0.00       0.41      0.000
4:41am            159          0          1         82       73.1       39.2      30.36       5.33       39.2       43.7       34.2      30.47       -404       0.00       0.00       0.41      0.000
4:42am            159          0          1         82       73.1       39.2      30.36       5.33       39.2       43.7       34.2      30.47       -402       0.00       0.00       0.41      0.000
4:43am            159          0          1         82       73.1       39.2      30.36       5.33       39.2       43.7       34.2      30.47       -403       0.00       0.00       0.41      0.000
4:44am            159          0          1         82       73.1       39.2      30.36       5.33       39.2       43.7       34.2      30.47       -405       0.00       0.00       0.41      0.000
4:45am            159          0          0         82       73.1       39.2      30.36       5.33       39.2       43.7       34.2      30.47       -405       0.00       0.00       0.41      0.000
4:46am            159          0          0         82       73.1       39.2      30.36       5.33       39.2       43.7       34.2      30.47       -405       0.00       0.00       0.41      0.000
4:47am            159          0          0         82       73.1       39.2      30.36       5.33       39.2       43.7       34.2      30.47       -404       0.00       0.00       0.41      0.000
4:48am            159          0          0         82       73.1       39.2      30.36       5.33       39.2       43.7       34.2      30.47       -406       0.00       0.00       0.41      0.000
4:49am            159          0          1         82       73.1       39.2      30.36       5.33       39.2       43.7       34.2      30.47       -407       0.00       0.00       0.41      0.000
4:50am            159          0          1         82       73.1       39.2      30.36       5.33       39.2       43.7       34.2      30.47       -407       0.00       0.00       0.41      0.000
4:51am            159          0          1         82       73.1       39.2      30.36       5.33       39.2       43.7       34.2      30.48       -407       0.00       0.00       0.41      0.000
4:52am            159          0          1         82       73.1       39.2      30.37       5.33       39.2       43.7       34.2      30.48       -410       0.00       0.00       0.41      0.000
4:53am            159          0          1         82       73.1       39.2      30.37       5.33       39.2       43.7       34.2      30.48       -411       0.00       0.00       0.41      0.000
4:54am            159          0          1         82       73.1       39.2      30.37       5.33       39.2       43.7       34.2      30.48       -410       0.00       0.00       0.41      0.000
4:55am            159          0          0         82       73.1       39.2      30.36       5.33       39.2       43.7       34.2      30.48       -408       0.00       0.00       0.41      0.000
4:56am            159          0          0         82       73.1       39.2      30.36       5.33       39.2       43.7       34.2      30.47       -407       0.00       0.00       0.41      0.000
4:57am            159          0          0         82       73.1       39.2      30.36       5.33       39.2       43.7       34.2      30.47       -405       0.00       0.00       0.41      0.000
4:58am            159          1          1         82       73.1       39.2      30.36       5.33       39.2       43.7       34.2      30.47       -406       0.00       0.00       0.41      0.000
4:59am            159          1          1         82       73.1       39.2      30.36       5.33       39.2       43.7       34.2      30.48       -407       0.00       0.00       0.41      0.000
5:00am            159          0          1         82       73.1       39.2      30.36       5.33       39.2       43.7       34.2      30.48       -408       0.00       0.00       0.41      0.000
5:01am            159          0          1         82       73.1       39.2      30.36       5.33       39.2       43.7       34.2      30.48       -408       0.00       0.00       0.41      0.000
5:02am            159          0          0         82       73.1       39.2      30.36       5.33       39.2       43.7       34.2      30.48       -408       0.00       0.00       0.41      0.000
5:03am            159          0          0         82       73.1       39.2      30.37       5.33       39.2       43.7       34.2      30.48       -410       0.00       0.00       0.41      0.000
5:04am            159          0          0         82       73.1       39.2      30.37       5.33       39.2       43.7       34.2      30.48       -411       0.00       0.00       0.41      0.000
5:05am            159          0          0         82       73.1       39.2      30.37       5.33       39.2       43.7       34.2      30.48       -410       0.00       0.00       0.41      0.000
5:06am            159          0          0         82       73.1       39.2      30.37       5.33       39.2       43.7       34.2      30.48       -411       0.00       0.00       0.41      0.000
5:07am            159          0          0         82       73.1       39.2      30.37       5.33       39.2       43.7       34.2      30.48       -410       0.00       0.00       0.41      0.000
5:08am            159          0          1         82       73.1       39.2      30.37       5.33       39.2       43.7       34.2      30.48       -410       0.00       0.00       0.41      0.000
5:09am            159          0          1         82       73.1       39.2      30.37       5.33       39.2       43.7       34.2      30.48       -410       0.00       0.00       0.41      0.000
5:10am            159          0          1         82       73.1       39.2      30.37       5.33       39.2       43.7       34.2      30.48       -412       0.00       0.00       0.41      0.000
5:11am            160          2          3         82       73.1       39.1      30.37       5.33       38.8       43.6       34.1      30.48       -413       0.00       0.00       0.41      0.000
5:12am            160          0          2         82       73.1       39.2      30.37       5.33       39.2       43.7       34.2      30.48       -415       0.00       0.00       0.41      0.000
5:13am            160          1          2         82       73.1       39.1      30.37       5.33       39.1       43.6       34.1      30.48       -416       0.00       0.00       0.41      0.000
5:14am            160          2          2         82       73.1       39.1      30.37       5.33       38.8       43.6       34.1      30.48       -416       0.00       0.00       0.41      0.000
5:15am            160          1          2         82       73.1       39.1      30.37       5.33       39.1       43.6       34.1      30.48       -416       0.00       0.00       0.41      0.000
5:16am            160          1          1         82       73.1       39.1      30.37       5.33       39.1       43.6       34.1      30.48       -415       0.00       0.00       0.41      0.000
5:17am            160          1          2         82       73.1       39.1      30.37       5.33       39.1       43.6       34.1      30.48       -414       0.00       0.00       0.41      0.000
5:18am            160          1          2         82       73.1       39.1      30.37       5.33       39.1       43.6       34.1      30.48       -412       0.00       0.00       0.41      0.000
5:19am            160          1          2         82       73.1       39.1      30.37       5.33       39.1       43.6       34.1      30.48       -412       0.00       0.00       0.41      0.000
5:20am            160          0          2         82       73.1       39.1      30.37       5.33       39.1       43.6       34.1      30.48       -411       0.00       0.00       0.41      0.000
5:21am            160          2          2         82       73.1       39.1      30.37       5.33       38.8       43.6       34.1      30.48       -410       0.00       0.00       0.41      0.000
5:22am            160          2          2         82       73.2       39.1      30.36       5.33       38.8       43.6       34.1      30.48       -408       0.00       0.00       0.41      0.000
5:23am            160          2          2         82       73.2       39.1      30.36       5.33       38.8       43.6       34.1      30.48       -407       0.00       0.00       0.41      0.000
5:24am            160          1          2         82       73.2       39.1      30.36       5.33       39.1       43.6       34.1      30.48       -407       0.00       0.00       0.41      0.000
5:25am            160          2          2         82       73.2       39.2      30.36       5.33       38.9       43.7       34.2      30.47       -405       0.00       0.00       0.41      0.000
5:26am            160          1          2         82       73.2       39.1      30.36       5.33       39.1       43.6       34.1      30.47       -403       0.00       0.00       0.41      0.000
5:27am            160          1          2         82       73.2       39.1      30.36       5.33       39.1       43.6       34.1      30.47       -405       0.00       0.00       0.41      0.000
5:28am            159          2          2         82       73.2       39.1      30.36       5.33       38.8       43.6       34.1      30.47       -403       0.00       0.00       0.41      0.000
5:29am            159          0          2         82       73.2       39.1      30.36       5.33       39.1       43.6       34.1      30.47       -403       0.00       0.00       0.41      0.000
5:30am            159          1          2         82       73.1       39.1      30.36       5.33       39.1       43.6       34.1      30.47       -401       0.00       0.00       0.41      0.000
5:31am            159          2          2         82       73.2       39.1      30.36       5.33       38.8       43.6       34.1      30.47       -400       0.00       0.00       0.41      0.000
5:32am            157          1          2         83       73.1       39.1      30.36       5.33       39.1       43.7       34.4      30.47       -400       0.00       0.00       0.41      0.000
5:33am            157          1          2         83       73.2       39.1      30.35       5.33       39.1       43.7       34.4      30.47       -398       0.00       0.00       0.41      0.000
5:34am            157          1          2         83       73.2       39.2      30.35       5.33       39.2       43.8       34.5      30.46       -397       0.00       0.00       0.41      0.000
5:35am            157          1          2         83       73.2       39.1      30.35       5.33       39.1       43.7       34.4      30.46       -397       0.00       0.00       0.41      0.000
5:36am            156          0          2         83       73.2       39.1      30.35       5.33       39.1       43.7       34.4      30.46       -396       0.00       0.00       0.41      0.000
5:37am            153          1          2         83       73.2       39.1      30.35       5.33       39.1       43.7       34.4      30.46       -396       0.00       0.00       0.41      0.000
5:38am            153          2          2         83       73.2       39.1      30.35       5.33       38.8       43.7       34.4      30.46       -396       0.00       0.00       0.41      0.000
5:39am            152          1          3         83       73.2       39.1      30.35       5.33       39.1       43.7       34.4      30.46       -397       0.00       0.00       0.41      0.000
5:40am            152          2          2         83       73.2       39.1      30.35       5.33       38.8       43.7       34.4      30.47       -399       0.00       0.00       0.41      0.000
5:41am            152          2          2         83       73.2       39.1      30.36       5.33       38.8       43.7       34.4      30.47       -400       0.00       0.00       0.41      0.000
5:42am            152          0          2         83       73.2       39.1      30.36       5.33       39.1       43.7       34.4      30.47       -402       0.00       0.00       0.41      0.000
5:43am            152          1          1         83       73.2       39.1      30.36       5.33       39.1       43.7       34.4      30.47       -403       0.00       0.00       0.41      0.000
5:44am            152          0          1         83       73.2       39.1      30.36       5.33       39.1       43.7       34.4      30.47       -403       0.00       0.00       0.41      0.000
5:45am            152          0          2         83       73.2       39.1      30.36       5.33       39.1       43.7       34.4      30.47       -403       0.00       0.00       0.41      0.000
5:46am            152          0          1         83       73.2       39.1      30.36       5.33       39.1       43.7       34.4      30.47       -401       0.00       0.00       0.41      0.000
5:47am            152          0          1         83       73.2       39.1      30.36       5.33       39.1       43.7       34.4      30.47       -402       0.00       0.00       0.41      0.000
5:48am            152          0          0         83       73.2       39.1      30.36       5.33       39.1       43.7       34.4      30.47       -402       0.00       0.00       0.41      0.000
5:49am            152          0          0         83       73.2       39.1      30.36       5.33       39.1       43.7       34.4      30.47       -403       0.00       0.00       0.41      0.000
5:50am            152          0          0         83       73.2       39.1      30.36       5.33       39.1       43.7       34.4      30.47       -405       0.00       0.00       0.41      0.000
5:51am            152          0          0         83       73.2       39.1      30.36       5.33       39.1       43.7       34.4      30.47       -405       0.00       0.00       0.41      0.000
5:52am            152          0          0         83       73.2       39.1      30.36       5.33       39.1       43.7       34.4      30.47       -406       0.00       0.00       0.41      0.000
5:53am            152          0          0         83       73.2       39.1      30.36       5.33       39.1       43.7       34.4      30.48       -408       0.00       0.00       0.41      0.000
5:54am            152          0          0         83       73.2       39.0      30.37       5.33       39.0       43.6       34.3      30.48       -411       0.00       0.00       0.41      0.000
5:55am            152          0          0         83       73.2       39.0      30.37       5.33       39.0       43.6       34.3      30.48       -414       0.00       0.00       0.41      0.000
5:56am            152          0          0         83       73.2       39.1      30.37       5.33       39.1       43.7       34.4      30.48       -414       0.00       0.00       0.41      0.000
5:57am            152          0          0         83       73.2       39.1      30.37       5.33       39.1       43.7       34.4      30.48       -416       0.00       0.00       0.41      0.000
5:58am            152          0          0         82       73.2       39.1      30.37       5.33       39.1       43.6       34.1      30.48       -416       0.00       0.00       0.41      0.000
5:59am            152          0          0         82       73.2       39.1      30.37       5.33       39.1       43.6       34.1      30.48       -412       0.00       0.00       0.41      0.000
6:00am            152          0          0         82       73.2       39.0      30.37       5.33       39.0       43.5       34.0      30.48       -412       0.00       0.00       0.41      0.000
6:01am            152          0          0         82       73.2       39.0      30.37       5.33       39.0       43.5       34.0      30.48       -410       0.00       0.00       0.41      0.000
6:02am            152          0          0         82       73.2       39.0      30.37       5.33       39.0       43.5       34.0      30.48       -411       0.00       0.00       0.41      0.000
6:03am            152          0          0         83       73.2       39.0      30.37       5.33       39.0       43.6       34.3      30.48       -411       0.00       0.00       0.41      0.000
6:04am            152          0          0         83       73.2       39.0      30.37       5.33       39.0       43.6       34.3      30.48       -414       0.00       0.00       0.41      0.000
6:05am            152          0          0         83       73.2       39.0      30.37       5.33       39.0       43.6       34.3      30.48       -415       0.00       0.00       0.41      0.000
6:06am            152          0          0         83       73.2       39.0      30.37       5.33       39.0       43.6       34.3      30.49       -417       0.00       0.00       0.41      0.000
6:07am            152          0          0         83       73.2       39.0      30.37       5.33       39.0       43.6       34.3      30.48       -416       0.00       0.00       0.41      0.000
6:08am            152          1          1         83       73.2       39.0      30.37       5.33       39.0       43.6       34.3      30.48       -416       0.00       0.00       0.41      0.000
6:09am            152          0          1         83       73.2       39.0      30.38       5.33       39.0       43.6       34.3      30.49       -418       0.00       0.00       0.41      0.000
6:10am            152          0          0         83       73.2       39.0      30.37       5.33       39.0       43.6       34.3      30.49       -417       0.00       0.00       0.41      0.000
6:11am            152          0          0         83       73.2       39.0      30.37       5.33       39.0       43.6       34.3      30.49       -417       0.00       0.00       0.41      0.000
6:12am            152          0          0         83       73.2       39.0      30.37       5.33       39.0       43.6       34.3      30.48       -415       0.00       0.00       0.41      0.000
6:13am            152          0          0         83       73.2       39.0      30.37       5.33       39.0       43.6       34.3      30.48       -415       0.00       0.00       0.41      0.000
6:14am            152          0          0         83       73.2       39.0      30.37       5.33       39.0       43.6       34.3      30.48       -415       0.00       0.00       0.41      0.000
6:15am            152          0          0         83       73.2       39.0      30.37       5.33       39.0       43.6       34.3      30.48       -415       0.00       0.00       0.41      0.000
6:16am            152          0          0         83       73.2       39.0      30.37       5.33       39.0       43.6       34.3      30.48       -415       0.00       0.00       0.41      0.000
6:17am            152          1          1         83       73.2       39.0      30.37       5.33       39.0       43.6       34.3      30.48       -415       0.00       0.00       0.41      0.000
6:18am            152          1          2         83       73.2       39.0      30.37       5.33       39.0       43.6       34.3      30.48       -416       0.00       0.00       0.41      0.000
6:19am            152          0          1         83       73.2       39.0      30.37       5.33       39.0       43.6       34.3      30.48       -416       0.00       0.00       0.41      0.000
6:20am            152          0          1         83       73.2       39.0      30.37       5.33       39.0       43.6       34.3      30.49       -417       0.00       0.00       0.41      0.000
6:21am            152          0          1         83       73.3       39.0      30.37       5.33       39.0       43.6       34.3      30.49       -417       0.00       0.00       0.41      0.000
6:22am            152          0          1         83       73.3       39.0      30.38       5.33       39.0       43.6       34.3      30.49       -420       0.00       0.00       0.41      0.000
6:23am            152          0          0         83       73.3       39.0      30.38       5.33       39.0       43.6       34.3      30.49       -419       0.00       0.00       0.41      0.000
6:24am            152          0          0         83       73.3       39.0      30.38       5.33       39.0       43.6       34.3      30.49       -419       0.00       0.00       0.41      0.000
6:25am            152          0          0         83       73.3       39.0      30.37       5.33       39.0       43.6       34.3      30.49       -417       0.00       0.00       0.41      0.000
6:26am            152          0          0         83       73.3       39.0      30.37       5.33       39.0       43.6       34.3      30.49       -417       0.00       0.00       0.41      0.000
6:27am            152          0          0         83       73.3       39.0      30.37       5.33       39.0       43.6       34.3      30.49       -417       0.00       0.00       0.41      0.000
6:28am            152          0          0         83       73.3       39.0      30.37       5.33       39.0       43.6       34.3      30.49       -417       0.00       0.00       0.41      0.000
6:29am            152          0          0         83       73.3       39.0      30.37       5.33       39.0       43.6       34.3      30.48       -416       0.00       0.00       0.41      0.000
6:30am            152          0          0         83       73.3       39.0      30.37       5.33       39.0       43.6       34.3      30.48       -415       0.00       0.00       0.41      0.000
6:31am            152          0          0         83       73.3       39.0      30.37       5.33       39.0       43.6       34.3      30.48       -414       0.00       0.00       0.41      0.000
6:32am            152          0          0         83       73.3       39.0      30.37       5.33       39.0       43.6       34.3      30.48       -412       0.00       0.00       0.41      0.000
6:33am            152          1          2         83       73.2       39.0      30.37       5.33       39.0       43.6       34.3      30.48       -410       0.00       0.00       0.41      0.000
6:34am            152          2          2         83       73.3       39.0      30.36       5.33       38.7       43.6       34.3      30.48       -408       0.00       0.00       0.41      0.000
6:35am            152          3          3         83       73.2       39.0      30.36       5.33       37.2       43.6       34.3      30.48       -407       0.00       0.00       0.41      0.000
6:36am            151          2          3         83       73.2       39.0      30.36       5.33       38.7       43.6       34.3      30.47       -406       0.00       0.00       0.41      0.000
6:37am            121          3          3         83       73.2       39.0      30.36       5.33       37.2       43.6       34.3      30.47       -405       0.00       0.00       0.41      0.000
6:38am            121          2          3         83       73.2       39.0      30.36       5.33       38.7       43.6       34.3      30.47       -404       0.00       0.00       0.41      0.000
6:39am            121          1          2         83       73.3       39.0      30.36       5.33       39.0       43.6       34.3      30.47       -404       0.00       0.00       0.41      0.000
6:40am            121          0          1         83       73.3       39.0      30.36       5.33       39.0       43.6       34.3      30.47       -402       0.00       0.00       0.41      0.000
6:41am            121          1          2         83       73.2       39.0      30.36       5.33       39.0       43.6       34.3      30.47       -400       0.00       0.00       0.41      0.000
6:42am            121          2          2         83       73.2       39.0      30.36       5.33       38.7       43.6       34.3      30.47       -400       0.00       0.00       0.41      0.000
6:43am            121          1          2         83       73.2       39.0      30.35       5.33       39.0       43.6       34.3      30.47       -398       0.00       0.00       0.41      0.000
6:44am            121          0          1         84       73.2       39.0      30.35       5.33       39.0       43.8       34.6      30.46       -397       0.00       0.00       0.41      0.000
6:45am            121          0          1         84       73.2       39.0      30.35       5.33       39.0       43.8       34.6      30.46       -397       0.00       0.00       0.41      0.000
6:46am            121          1          1         84       73.2       39.0      30.35       5.33       39.0       43.8       34.6      30.46       -397       0.00       0.00       0.41      0.000
6:47am            121          1          2         84       73.2       39.0      30.35       5.33       39.0       43.8       34.6      30.46       -397       0.00       0.00       0.41      0.000
6:48am            121          0          3         84       73.2       39.0      30.35       5.33       39.0       43.8       34.6      30.46       -397       0.00       0.00       0.41      0.000
6:49am            121          1          2         84       73.2       39.0      30.35       5.33       39.0       43.8       34.6      30.46       -397       0.00       0.00       0.41      0.000
6:50am            121          1          2         84       73.2       39.0      30.35       5.33       39.0       43.8       34.6      30.46       -397       0.00       0.00       0.41      0.000
6:51am            121          1          2         84       73.2       39.0      30.35       5.33       39.0       43.8       34.6      30.46       -397       0.00       0.00       0.41      0.000
6:52am            121          1          2         84       73.2       39.0      30.35       5.33       39.0       43.8       34.6      30.46       -397       0.00       0.00       0.41      0.000
6:53am            121          1          2         84       73.2       39.0      30.35       5.33       39.0       43.8       34.6      30.46       -395       0.00       0.00       0.41      0.000
6:54am            121          1          2         84       73.2       39.0      30.35       5.33       39.0       43.8       34.6      30.46       -392       0.00       0.00       0.41      0.000
6:55am            121          2          2         84       73.3       39.0      30.35       5.33       38.7       43.8       34.6      30.46       -391       0.00       0.00       0.41      0.000
6:56am            121          1          2         84       73.2       39.0      30.34       5.33       39.0       43.8       34.6      30.45       -389       0.00       0.00       0.41      0.000
6:57am            121          1          1         84       73.2       39.1      30.34       5.33       39.1       43.9       34.7      30.45       -389       0.00       0.00       0.41      0.000
6:58am            121          1          2         84       73.2       39.1      30.34       5.33       39.1       43.9       34.7      30.45       -388       0.00       0.00       0.41      0.000
6:59am            122          3          3         84       73.2       39.1      30.34       5.33       37.3       43.9       34.7      30.45       -386       0.00       0.00       0.41      0.000
7:00am            105          3          3         84       73.2       39.1      30.34       5.33       37.3       43.9       34.7      30.45       -383       0.00       0.00       0.41      0.000
7:01am            110          2          3         84       73.2       39.1      30.34       5.33       38.8       43.9       34.7      30.45       -382       0.00       0.00       0.41      0.000
7:02am            122          2          3         85       73.2       39.1      30.33       5.33       38.8       44.0       35.0      30.45       -381       0.00       0.00       0.41      0.000
7:03am            102          2          3         85       73.2       39.1      30.33       5.33       38.8       44.0       35.0      30.44       -380       0.00       0.00       0.41      0.000
7:04am            115          1          3         85       73.2       39.2      30.33       5.33       39.2       44.1       35.1      30.44       -380       0.00       0.00       0.41      0.000
7:05am            115          1          2         85       73.2       39.2      30.33       5.33       39.2       44.1       35.1      30.45       -381       0.00       0.00       0.41      0.000
7:06am            115          3          3         85       73.2       39.2      30.34       5.33       37.5       44.1       35.1      30.45       -382       0.00       0.00       0.41      0.000
7:07am            104          1          4         85       73.2       39.2      30.34       5.33       39.2       44.1       35.1      30.45       -384       0.00       0.00       0.41      0.000
7:08am            105          2          3         85       73.2       39.2      30.34       5.33       38.9       44.1       35.1      30.45       -388       0.00       0.00       0.41      0.000
7:09am            105          1          2         85       73.2       39.2      30.34       5.33       39.2       44.1       35.1      30.45       -389       0.00       0.00       0.41      0.000
7:10am            105          1          2         85       73.2       39.2      30.34       5.33       39.2       44.1       35.1      30.45       -389       0.00       0.00       0.41      0.000
7:11am            105          1          1         85       73.2       39.2      30.35       5.33       39.2       44.1       35.1      30.46       -391       0.00       0.00       0.41      0.000
7:12am            105          0          1         85       73.2       39.2      30.35       5.33       39.2       44.1       35.1      30.46       -391       0.00       0.00       0.41      0.000
7:13am            105          1          1         85       73.2       39.2      30.35       5.33       39.2       44.1       35.1      30.46       -394       0.00       0.00       0.41      0.000
7:14am            105          0          1         85       73.2       39.2      30.35       5.33       39.2       44.1       35.1      30.46       -396       0.00       0.00       0.41      0.000
7:15am            105          0          1         86       73.2       39.2      30.35       5.33       39.2       44.3       35.4      30.46       -397       0.00       0.00       0.41      0.000
7:16am            105          1          1         86       73.2       39.2      30.35       5.34       39.2       44.3       35.4      30.46       -397       0.01       0.01       0.42      0.000
7:17am            105          0          2         86       73.2       39.2      30.35       5.34       39.2       44.3       35.4      30.47       -399       0.01       0.01       0.42      0.000
7:18am            105          0          1         86       73.1       39.2      30.35       5.34       39.2       44.3       35.4      30.47       -399       0.01       0.01       0.42      0.000
7:19am            105          1          1         86       73.2       39.2      30.36       5.34       39.2       44.3       35.4      30.47       -407       0.01       0.01       0.42      0.000
7:20am            105          0          1         86       73.2       39.2      30.37       5.34       39.2       44.3       35.4      30.48       -412       0.01       0.01       0.42      0.000
7:21am            105          1          1         86       73.1       39.2      30.37       5.34       39.2       44.3       35.4      30.48       -413       0.01       0.01       0.42      0.000
7:22am            105          1          1         86       73.2       39.2      30.37       5.34       39.2       44.3       35.4      30.48       -413       0.01       0.01       0.42      0.000
7:23am            105          1          1         86       73.2       39.2      30.37       5.34       39.2       44.3       35.4      30.48       -412       0.01       0.01       0.42      0.000
7:24am            105          0          1         86       73.1       39.2      30.37       5.34       39.2       44.3       35.4      30.48       -412       0.01       0.01       0.42      0.000
7:25am            105          0          1         86       73.2       39.2      30.37       5.34       39.2       44.3       35.4      30.48       -414       0.01       0.01       0.42      0.000
7:26am            105          0          1         86       73.1       39.2      30.37       5.34       39.2       44.3       35.4      30.49       -417       0.01       0.01       0.42      0.000
7:27am            105          0          1         86       73.1       39.2      30.38       5.34       39.2       44.3       35.4      30.49       -418       0.01       0.01       0.42      0.000
7:28am            105          0          1         86       73.2       39.3      30.38       5.34       39.3       44.4       35.5      30.49       -419       0.01       0.01       0.42      0.000
7:29am            105          0          1         86       73.1       39.2      30.38       5.34       39.2       44.3       35.4      30.49       -420       0.01       0.01       0.42      0.000
7:30am            105          0          1         86       73.2       39.3      30.38       5.34       39.3       44.4       35.5      30.49       -424       0.01       0.01       0.42      0.000
7:31am            105          0          1         87       73.2       39.3      30.38       5.35       39.3       44.5       35.8      30.50       -427       0.02       0.02       0.43      0.040
7:32am            105          0          1         87       73.1       39.3      30.38       5.35       39.3       44.5       35.8      30.50       -427       0.02       0.02       0.43      0.040
7:33am            105          0          1         86       73.2       39.3      30.38       5.35       39.3       44.4       35.5      30.50       -427       0.02       0.02       0.43      0.040
7:34am            105          0          0         86       73.2       39.3      30.38       5.35       39.3       44.4       35.5      30.50       -426       0.02       0.02       0.43      0.040
7:35am            105          0          0         86       73.1       39.3      30.38       5.35       39.3       44.4       35.5      30.49       -425       0.02       0.02       0.43      0.040
7:36am            105          0          0         87       73.2       39.3      30.38       5.35       39.3       44.5       35.8      30.49       -425       0.02       0.02       0.43      0.040
7:37am            105          1          1         87       73.1       39.3      30.38       5.35       39.3       44.5       35.8      30.49       -422       0.02       0.02       0.43      0.040
7:38am            105          0          1         87       73.1       39.3      30.38       5.35       39.3       44.5       35.8      30.49       -423       0.02       0.02       0.43      0.040
7:39am            202          2          2         87       73.1       39.3      30.38       5.35       39.0       44.5       35.8      30.49       -424       0.02       0.02       0.43      0.040
7:40am            201          1          2         87       73.1       39.3      30.38       5.35       39.3       44.5       35.8      30.49       -425       0.02       0.02       0.43      0.040
7:41am            202          0          1         87       73.1       39.3      30.38       5.35       39.3       44.5       35.8      30.49       -425       0.02       0.02       0.43      0.040
7:42am            201          0          1         87       73.1       39.3      30.38       5.35       39.3       44.5       35.8      30.50       -427       0.02       0.02       0.43      0.040
7:43am            202          0          1         87       73.1       39.3      30.38       5.35       39.3       44.5       35.8      30.50       -426       0.02       0.02       0.43      0.040
7:44am            201          0          1         87       73.1       39.3      30.38       5.35       39.3       44.5       35.8      30.49       -424       0.02       0.02       0.43      0.040
7:45am            201          1          2         87       73.1       39.4      30.38       5.35       39.4       44.6       35.9      30.49       -422       0.02       0.02       0.43      0.040
7:46am            138          2          2         88       73.1       39.4      30.38       5.35       39.1       44.7       36.1      30.49       -420       0.02       0.02       0.43      0.040
7:47am            138          1          2         88       73.1       39.4      30.37       5.35       39.4       44.7       36.1      30.49       -417       0.02       0.02       0.43      0.040
7:48am            115          2          3         88       73.1       39.4      30.37       5.35       39.1       44.7       36.1      30.49       -417       0.02       0.02       0.43      0.000
7:49am            115          1          2         88       73.1       39.4      30.37       5.35       39.4       44.7       36.1      30.49       -417       0.02       0.02       0.43      0.000
7:50am            115          1          2         88       73.1       39.5      30.37       5.35       39.5       44.8       36.2      30.49       -417       0.02       0.02       0.43      0.000
7:51am            115          0          2         88       73.1       39.5      30.37       5.35       39.5       44.8       36.2      30.49       -417       0.02       0.02       0.43      0.000
7:52am            115          1          1         88       73.1       39.5      30.38       5.35       39.5       44.8       36.2      30.49       -419       0.02       0.02       0.43      0.000
7:53am            115          2          3         88       73.1       39.5      30.37       5.35       39.2       44.8       36.2      30.49       -417       0.02       0.02       0.43      0.000
7:54am            115          1          2         88       73.1       39.5      30.37       5.35       39.5       44.8       36.2      30.49       -417       0.02       0.02       0.43      0.000
7:55am            115          1          3         88       73.1       39.5      30.37       5.35       39.5       44.8       36.2      30.49       -417       0.02       0.02       0.43      0.000
7:56am            115          1          2         88       73.1       39.5      30.37       5.35       39.5       44.8       36.2      30.48       -416       0.02       0.02       0.43      0.000
7:57am            115          0          1         88       73.1       39.5      30.37       5.35       39.5       44.8       36.2      30.48       -416       0.02       0.02       0.43      0.000
7:58am            115          0          2         89       73.1       39.5      30.37       5.35       39.5       45.0       36.5      30.49       -417       0.02       0.02       0.43      0.000
7:59am            115          1          1         89       73.1       39.5      30.37       5.35       39.5       45.0       36.5      30.49       -417       0.02       0.02       0.43      0.000
8:00am            115          0          1         89       73.1       39.5      30.37       5.35       39.5       45.0       36.5      30.49       -417       0.02       0.02       0.43      0.000
8:01am            115          0          0         89       73.1       39.5      30.37       5.35       39.5       45.0       36.5      30.49       -417       0.02       0.02       0.43      0.000
8:02am            115          0          0         89       73.1       39.5      30.37       5.35       39.5       45.0       36.5      30.48       -415       0.02       0.02       0.43      0.000
8:03am            115          1          2         89       73.1       39.6      30.37       5.35       39.6       45.1       36.6      30.48       -411       0.02       0.02       0.43      0.000
8:04am            115          1          2         89       73.1       39.6      30.37       5.35       39.6       45.1       36.6      30.48       -411       0.02       0.02       0.43      0.000
8:05am            115          1          2         89       73.1       39.6      30.37       5.35       39.6       45.1       36.6      30.48       -410       0.02       0.02       0.43      0.000
8:06am            115          1          2         89       73.1       39.6      30.37       5.35       39.6       45.1       36.6      30.48       -410       0.02       0.02       0.43      0.000
8:07am            115          2          3         89       73.1       39.7      30.37       5.35       39.4       45.2       36.7      30.48       -410       0.02       0.02       0.43      0.000
8:08am            115          2          2         89       73.1       39.7      30.37       5.35       39.4       45.2       36.7      30.48       -409       0.02       0.02       0.43      0.000
8:09am            109          3          4         89       73.1       39.8      30.37       5.35       38.1       45.3       36.8      30.48       -409       0.02       0.02       0.43      0.000
8:10am            109          3          3         89       73.1       39.8      30.36       5.35       38.1       45.3       36.8      30.48       -407       0.02       0.02       0.43      0.000
8:11am            109          2          3         89       73.1       39.9      30.36       5.35       39.7       45.4       36.9      30.48       -407       0.02       0.02       0.43      0.000
8:12am            109          2          3         89       73.1       40.0      30.36       5.35       39.8       45.5       37.0      30.48       -407       0.02       0.02       0.43      0.000
8:13am            109          1          3         90       73.1       40.0      30.36       5.35       40.0       45.6       37.3      30.47       -407       0.02       0.02       0.43      0.000
8:14am            109          1          2         90       73.1       40.1      30.36       5.35       40.1       45.7       37.4      30.47       -407       0.02       0.02       0.43      0.000
8:15am            109          2          2         90       73.2       40.1      30.36       5.35       39.9       45.7       37.4      30.47       -407       0.02       0.02       0.43      0.000
8:16am            109          2          3         90       73.1       40.2      30.36       5.35       40.0       45.8       37.5      30.47       -404       0.02       0.02       0.43      0.000
8:17am            111          2          3         90       73.1       40.3      30.36       5.35       40.1       45.9       37.6      30.47       -402       0.02       0.01       0.43      0.000
8:18am            114          3          3         90       73.2       40.3      30.36       5.35       38.7       45.9       37.6      30.47       -400       0.02       0.01       0.43      0.000
8:19am             89          3          4         90       73.1       40.4      30.36       5.35       38.8       46.0       37.7      30.47       -400       0.02       0.01       0.43      0.000
8:20am             89          2          3         90       73.1       40.4      30.35       5.35       40.2       46.0       37.7      30.47       -399       0.02       0.01       0.43      0.000
8:21am             89          2          3         90       73.1       40.4      30.35       5.35       40.2       46.0       37.7      30.47       -399       0.02       0.01       0.43      0.000
8:22am             96          3          3         90       73.1       40.5      30.35       5.35       38.9       46.1       37.8      30.47       -399       0.02       0.01       0.43      0.000
8:23am             97          2          3         90       73.1       40.5      30.35       5.35       40.3       46.1       37.8      30.47       -399       0.02       0.01       0.43      0.000
8:24am             97          3          3         90       73.1       40.5      30.36       5.35       38.9       46.1       37.8      30.47       -400       0.02       0.01       0.43      0.000
8:24am             97          2          3         90       73.1       40.6      30.36       5.35       40.4       46.2       37.9      30.47       -400       0.02       0.01       0.43      0.000
8:26am            101          3          4         90       73.1       40.6      30.35       5.35       39.0       46.2       37.9      30.47       -398       0.02       0.01       0.43      0.000
8:27am            110          3          3         90       73.2       40.6      30.35       5.35       39.0       46.2       37.9      30.46       -397       0.02       0.01       0.43      0.000
8:28am            150          2          3         90       73.2       40.6      30.35       5.35       40.4       46.2       37.9      30.46       -397       0.02       0.01       0.43      0.000
8:29am            150          2          3         90       73.2       40.6      30.35       5.35       40.4       46.2       37.9      30.46       -395       0.02       0.01       0.43      0.000
8:30am            136          2          3         90       73.2       40.6      30.35       5.35       40.4       46.2       37.9      30.46       -394       0.02       0.01       0.43      0.000
8:31am            136          2          3         90       73.2       40.6      30.35       5.35       40.4       46.2       37.9      30.46       -394       0.02       0.01       0.43      0.000
8:32am            132          1          2         90       73.2       40.6      30.35       5.35       40.6       46.2       37.9      30.46       -394       0.02       0.00       0.43      0.000
8:33am            132          1          2         90       73.2       40.6      30.35       5.35       40.6       46.2       37.9      30.46       -395       0.02       0.00       0.43      0.000
8:34am            132          1          2         90       73.2       40.6      30.35       5.35       40.6       46.2       37.9      30.46       -395       0.02       0.00       0.43      0.000
8:35am            134          2          2         90       73.1       40.6      30.35       5.35       40.4       46.2       37.9      30.46       -394       0.02       0.00       0.43      0.000
8:36am            106          2          3         90       73.2       40.6      30.35       5.35       40.4       46.2       37.9      30.46       -396       0.02       0.00       0.43      0.000
8:37am            107          1          2         90       73.2       40.6      30.35       5.35       40.6       46.2       37.9      30.46       -397       0.02       0.00       0.43      0.000
8:38am            107          1          1         90       73.2       40.6      30.35       5.35       40.6       46.2       37.9      30.47       -398       0.02       0.00       0.43      0.000
8:39am            107          1          2         90       73.2       40.6      30.35       5.35       40.6       46.2       37.9      30.47       -398       0.02       0.00       0.43      0.000
8:40am            124          3          3         90       73.2       40.7      30.35       5.35       39.2       46.3       38.0      30.47       -398       0.02       0.00       0.43      0.000
8:41am            136          2          3         90       73.2       40.7      30.36       5.35       40.5       46.3       38.0      30.47       -400       0.02       0.00       0.43      0.000
8:42am            111          1          3         90       73.2       40.7      30.35       5.35       40.7       46.3       38.0      30.47       -399       0.02       0.00       0.43      0.000
8:43am            112          1          3         90       73.2       40.7      30.35       5.35       40.7       46.3       38.0      30.47       -399       0.02       0.00       0.43      0.000
8:44am            112          1          2         90       73.2       40.7      30.35       5.35       40.7       46.3       38.0      30.47       -399       0.02       0.00       0.43      0.000
8:45am            112          0          1         90       73.2       40.7      30.35       5.35       40.7       46.3       38.0      30.47       -398       0.02       0.00       0.43      0.000
8:46am            112          0          2         90       73.2       40.7      30.35       5.35       40.7       46.3       38.0      30.47       -398       0.02       0.00       0.43      0.000
8:47am            112          1          1         90       73.2       40.7      30.36       5.35       40.7       46.3       38.0      30.47       -403       0.02       0.00       0.43      0.000
8:48am            112          2          2         90       73.2       40.7      30.36       5.35       40.5       46.3       38.0      30.47       -403       0.02       0.00       0.43      0.000
8:49am            206          1          3         90       73.2       40.7      30.36       5.35       40.7       46.3       38.0      30.47       -404       0.02       0.00       0.43      0.000
8:50am            206          1          2         90       73.2       40.8      30.36       5.35       40.8       46.4       38.1      30.47       -403       0.02       0.00       0.43      0.000
8:51am            206          0          1         90       73.2       40.8      30.36       5.35       40.8       46.4       38.1      30.47       -402       0.02       0.00       0.43      0.000
8:52am            205          1          2         90       73.2       40.8      30.36       5.35       40.8       46.4       38.1      30.47       -403       0.02       0.00       0.43      0.000
8:53am            205          2          2         90       73.2       40.8      30.36       5.35       40.6       46.4       38.1      30.47       -402       0.02       0.00       0.43      0.000
8:54am            205          1          2         90       73.2       40.9      30.36       5.35       40.9       46.5       38.2      30.47       -402       0.02       0.00       0.43      0.000
8:55am            205          2          2         90       73.2       40.9      30.36       5.35       40.8       46.5       38.2      30.47       -403       0.02       0.00       0.43      0.000
8:56am            205          1          2         90       73.2       40.9      30.36       5.35       40.9       46.5       38.2      30.47       -405       0.02       0.00       0.43      0.000
8:57am            205          2          2         90       73.3       40.9      30.36       5.35       40.8       46.5       38.2      30.47       -407       0.02       0.00       0.43      0.000
8:58am            174          2          3         90       73.2       40.9      30.36       5.35       40.8       46.5       38.2      30.47       -405       0.02       0.00       0.43      0.000
8:59am            172          2          3         90       73.2       41.0      30.36       5.35       40.9       46.6       38.3      30.47       -406       0.02       0.00       0.43      0.000
9:00am            172          2          2         90       73.3       41.0      30.36       5.35       40.9       46.6       38.3      30.48       -407       0.02       0.00       0.43      0.000
9:01am            172          1          2         90       73.3       41.0      30.36       5.35       41.0       46.6       38.3      30.48       -407       0.02       0.00       0.43      0.000
9:02am            183          1          2         90       73.3       41.0      30.36       5.35       41.0       46.6       38.3      30.48       -407       0.02       0.00       0.43      0.000
9:03am            183          0          2         90       73.3       41.0      30.37       5.35       41.0       46.6       38.3      30.48       -412       0.02       0.00       0.43      0.000
9:04am            183          1          2         90       73.3       41.1      30.37       5.35       41.1       46.7       38.4      30.48       -414       0.02       0.00       0.43      0.000
9:04am            217          2          3         90       73.3       41.2      30.37       5.35       41.1       46.8       38.5      30.48       -414       0.02       0.00       0.43      0.000
9:06am            209          3          4         90       73.3       41.2      30.37       5.35       39.7       46.8       38.5      30.48       -416       0.02       0.00       0.43      0.000
9:07am            178          3          5         90       73.3       41.2      30.37       5.35       39.7       46.8       38.5      30.48       -416       0.02       0.00       0.43      0.000
9:08am            178          1          3         90       73.3       41.2      30.37       5.35       41.2       46.8       38.5      30.48       -416       0.02       0.00       0.43      0.000
9:09am            178          1          1         90       73.3       41.2      30.37       5.35       41.2       46.8       38.5      30.48       -416       0.02       0.00       0.43      0.000
9:10am            187          1          2         89       73.3       41.2      30.37       5.35       41.2       46.7       38.2      30.48       -415       0.02       0.00       0.43      0.000
9:11am            187          1          3         89       73.3       41.2      30.37       5.35       41.2       46.7       38.2      30.48       -416       0.02       0.00       0.43      0.000
9:12am            200          5          5         89       73.3       41.3      30.37       5.35       38.0       46.8       38.3      30.48       -416       0.02       0.00       0.43      0.000
9:13am            214          3          5         89       73.3       41.2      30.37       5.35       39.7       46.7       38.2      30.48       -416       0.02       0.00       0.43      0.000
9:14am            227          2          4         89       73.3       41.3      30.37       5.35       41.2       46.8       38.3      30.48       -415       0.02       0.00       0.43      0.000
9:15am            179          2          4         89       73.3       41.3      30.37       5.35       41.2       46.8       38.3      30.48       -415       0.02       0.00       0.43      0.000
9:16am            146          3          3         89       73.3       41.3      30.37       5.35       39.8       46.8       38.3      30.48       -414       0.02       0.00       0.43      0.000
9:17am            150          3          4         89       73.3       41.3      30.37       5.35       39.8       46.8       38.3      30.48       -411       0.02       0.00       0.43      0.000
9:18am            146          3          5         89       73.3       41.3      30.37       5.35       39.8       46.8       38.3      30.48       -411       0.02       0.00       0.43      0.000
9:19am            146          1          3         89       73.3       41.3      30.37       5.35       41.3       46.8       38.3      30.48       -411       0.02       0.00       0.43      0.000
9:20am            146          3          3         89       73.3       41.3      30.37       5.35       39.8       46.8       38.3      30.48       -410       0.02       0.00       0.43      0.000
9:21am            151          3          3         89       73.3       41.3      30.36       5.35       39.8       46.8       38.3      30.48       -408       0.02       0.00       0.43      0.000
9:22am            175          1          5         89       73.3       41.3      30.37       5.35       41.3       46.8       38.3      30.48       -409       0.02       0.00       0.43      0.000
9:23am            155          2          3         89       73.3       41.3      30.36       5.35       41.2       46.8       38.3      30.48       -408       0.02       0.00       0.43      0.000
9:24am            158          3          4         89       73.3       41.3      30.36       5.35       39.8       46.8       38.3      30.48       -408       0.02       0.00       0.43      0.000
9:25am            200          2          4         89       73.3       41.3      30.36       5.35       41.2       46.8       38.3      30.48       -408       0.02       0.00       0.42      0.000
9:26am            183          4          4         89       73.3       41.3      30.36       5.35       38.8       46.8       38.3      30.48       -408       0.02       0.00       0.42      0.000
9:27am            201          1          4         89       73.3       41.3      30.36       5.35       41.3       46.8       38.3      30.48       -407       0.02       0.00       0.42      0.000
9:28am            149          2          3         89       73.3       41.3      30.36       5.35       41.2       46.8       38.3      30.48       -407       0.02       0.00       0.42      0.000
9:29am            195          2          3         89       73.3       41.3      30.36       5.35       41.2       46.8       38.3      30.47       -406       0.02       0.00       0.42      0.000
9:30am            188          1          3         89       73.3       41.3      30.36       5.35       41.3       46.8       38.3      30.47       -406       0.02       0.00       0.42      0.000
9:31am            188          1          2         89       73.3       41.3      30.36       5.35       41.3       46.8       38.3      30.47       -404       0.02       0.00       0.42      0.000
9:32am            166          1          3         89       73.3       41.3      30.36       5.35       41.3       46.8       38.3      30.47       -404       0.02       0.00       0.42      0.000
9:33am            161          3          4         89       73.3       41.3      30.36       5.35       39.8       46.8       38.3      30.47       -405       0.02       0.00       0.42      0.000
9:34am            136          5          5         89       73.3       41.3      30.36       5.35       38.0       46.8       38.3      30.47       -404       0.02       0.00       0.42      0.000
9:35am            202          3          5         89       73.3       41.3      30.36       5.35       39.8       46.8       38.3      30.47       -403       0.02       0.00       0.42      0.000
9:36am            176          3          3         89       73.3       41.3      30.36       5.35       39.8       46.8       38.3      30.47       -403       0.02       0.00       0.42      0.000
9:37am            168          3          4         89       73.3       41.3      30.36       5.35       39.8       46.8       38.3      30.47       -404       0.02       0.00       0.42      0.000
9:38am            117          3          4         89       73.3       41.4      30.36       5.35       39.9       46.9       38.4      30.47       -401       0.02       0.00       0.42      0.000
9:39am            153          2          4         89       73.3       41.4      30.36       5.35       41.3       46.9       38.4      30.47       -400       0.02       0.00       0.41      0.000
9:40am            149          1          4         89       73.3       41.4      30.36       5.35       41.4       46.9       38.4      30.47       -400       0.02       0.00       0.41      0.000
9:41am            154          3          4         89       73.3       41.4      30.35       5.35       39.9       46.9       38.4      30.47       -399       0.02       0.00       0.41      0.000
9:42am            154          4          5         88       73.3       41.4      30.35       5.35       38.9       46.7       38.1      30.47       -398       0.02       0.00       0.41      0.000
9:43am            129          4          5         88       73.3       41.4      30.36       5.35       38.9       46.7       38.1      30.47       -401       0.02       0.00       0.41      0.000
9:44am            138          5          6         88       73.3       41.4      30.35       5.35       38.1       46.7       38.1      30.47       -398       0.02       0.00       0.41      0.000
9:45am            150          4          5         88       73.3       41.4      30.35       5.35       38.9       46.7       38.1      30.47       -399       0.02       0.00       0.41      0.000
9:46am            146          5          5         88       73.3       41.5      30.35       5.35       38.2       46.8       38.2      30.47       -399       0.02       0.00       0.41      0.000
9:47am            161          2          5         88       73.3       41.5      30.35       5.35       41.4       46.8       38.2      30.47       -399       0.02       0.00       0.41      0.000
9:48am            173          2          4         88       73.3       41.5      30.35       5.35       41.4       46.8       38.2      30.47       -399       0.02       0.00       0.41      0.000
9:49am            155          2          2         88       73.3       41.5      30.35       5.35       41.4       46.8       38.2      30.47       -398       0.02       0.00       0.41      0.000
9:50am            150          2          3         88       73.3       41.5      30.35       5.35       41.4       46.8       38.2      30.46       -397       0.02       0.00       0.41      0.000
9:51am            153          3          3         89       73.3       41.5      30.35       5.35       40.1       47.0       38.5      30.46       -397       0.02       0.00       0.41      0.000
9:52am            153          1          3         89       73.3       41.5      30.36       5.35       41.5       47.0       38.5      30.47       -400       0.02       0.00       0.40      0.000
9:53am            148          2          2         89       73.3       41.6      30.36       5.35       41.5       47.1       38.6      30.47       -400       0.02       0.00       0.40      0.000
9:54am            193          3          3         89       73.3       41.6      30.36       5.35       40.2       47.1       38.6      30.47       -401       0.02       0.00       0.40      0.000
9:55am            137          4          4         89       73.3       41.6      30.36       5.35       39.2       47.1       38.6      30.47       -400       0.02       0.00       0.40      0.000
9:56am            127          3          5         88       73.3       41.6      30.36       5.35       40.2       46.9       38.3      30.47       -400       0.02       0.00       0.40      0.000
9:57am            158          2          4         88       73.3       41.7      30.36       5.35       41.6       47.0       38.4      30.47       -400       0.02       0.00       0.40      0.000
9:58am            148          1          3         88       73.3       41.7      30.36       5.35       41.7       47.0       38.4      30.47       -402       0.02       0.00       0.40      0.000
9:59am            124          2          3         88       73.3       41.7      30.36       5.35       41.6       47.0       38.4      30.47       -402       0.02       0.00       0.39      0.000
10:00am           152          2          3         88       73.3       41.8      30.36       5.35       41.7       47.1       38.5      30.47       -402       0.02       0.00       0.39      0.000
10:01am           169          2          3         88       73.3       41.8      30.36       5.35       41.7       47.1       38.5      30.47       -401       0.02       0.00       0.39      0.000
10:02am           130          2          5         88       73.3       41.8      30.36       5.35       41.7       47.1       38.5      30.47       -401       0.02       0.00       0.39      0.000
10:03am           136          5          6         88       73.3       41.8      30.36       5.35       38.6       47.1       38.5      30.47       -400       0.02       0.00       0.39      0.000
10:04am           146          5          6         88       73.4       41.8      30.35       5.35       38.6       47.1       38.5      30.47       -399       0.02       0.00       0.39      0.000
10:05am           163          2          5         88       73.3       41.8      30.35       5.35       41.7       47.1       38.5      30.47       -399       0.02       0.00       0.39      0.000
10:06am           144          4          4         88       73.3       41.9      30.35       5.35       39.5       47.2       38.6      30.47       -399       0.02       0.00       0.39      0.000
10:07am           165          4          5         88       73.3       41.9      30.35       5.35       39.5       47.2       38.6      30.47       -399       0.02       0.00       0.38      0.000
10:08am           148          2          5         88       73.4       41.9      30.35       5.35       41.9       47.2       38.6      30.47       -399       0.02       0.00       0.38      0.000
10:09am           151          4          7         88       73.3       41.9      30.35       5.35       39.5       47.2       38.6      30.47       -399       0.02       0.00       0.38      0.000
10:10am           168          2          4         88       73.3       41.9      30.36       5.35       41.9       47.2       38.6      30.47       -400       0.02       0.00       0.38      0.000
10:11am           180          1          3         88       73.3       41.9      30.36       5.35       41.9       47.2       38.6      30.47       -400       0.02       0.00       0.38      0.000
10:12am           146          2          3         88       73.3       41.9      30.36       5.35       41.9       47.2       38.6      30.47       -400       0.02       0.00       0.38      0.000
10:13am           189          4          5         88       73.3       42.0      30.36       5.35       39.6       47.3       38.7      30.47       -400       0.02       0.00       0.38      0.000
10:14am           131          3          6         88       73.3       42.0      30.36       5.35       40.6       47.3       38.7      30.47       -400       0.02       0.00       0.37      0.000
10:15am           189          4          5         88       73.3       42.0      30.36       5.35       39.6       47.3       38.7      30.47       -400       0.02       0.00       0.37      0.000
10:16am           191          1          4         88       73.3       42.0      30.36       5.35       42.0       47.3       38.7      30.47       -402       0.02       0.00       0.37      0.000
10:17am           179          3          5         88       73.3       42.1      30.36       5.35       40.7       47.4       38.8      30.47       -402       0.02       0.00       0.37      0.000
10:18am           172          3          5         88       73.3       42.1      30.36       5.35       40.7       47.4       38.8      30.47       -403       0.02       0.00       0.37      0.000
10:19am           155          2          3         88       73.3       42.2      30.36       5.35       42.2       47.5       38.9      30.47       -404       0.02       0.00       0.37      0.000
10:20am           141          4          5         88       73.3       42.2      30.36       5.35       39.9       47.5       38.9      30.47       -404       0.02       0.00       0.37      0.000
10:21am           148          3          5         88       73.3       42.2      30.36       5.35       40.9       47.5       38.9      30.47       -402       0.02       0.00       0.37      0.000
10:22am           128          3          4         88       73.3       42.2      30.36       5.35       40.9       47.5       38.9      30.47       -400       0.02       0.00       0.37      0.000
10:23am           136          5          5         88       73.3       42.2      30.35       5.35       39.1       47.5       38.9      30.47       -399       0.02       0.00       0.36      0.000
10:24am           141          2          5         88       73.3       42.3      30.35       5.35       42.3       47.6       39.0      30.47       -399       0.02       0.00       0.36      0.000
10:25am           137          1          3         88       73.4       42.2      30.35       5.35       42.2       47.5       38.9      30.47       -399       0.02       0.00       0.36      0.000
10:26am           189          2          4         88       73.4       42.3      30.35       5.35       42.3       47.6       39.0      30.47       -399       0.02       0.00       0.36      0.000
10:27am           124          2          4         88       73.4       42.3      30.35       5.35       42.3       47.6       39.0      30.47       -399       0.02       0.00       0.36      0.000
10:28am           133          3          3         88       73.3       42.3      30.35       5.35       41.0       47.6       39.0      30.47       -399       0.02       0.00       0.36      0.000
10:29am           154          4          4         88       73.3       42.4      30.35       5.35       40.1       47.7       39.1      30.47       -399       0.02       0.00       0.36      0.000
10:30am           147          2          4         87       73.3       42.4      30.35       5.35       42.4       47.6       38.8      30.47       -398       0.02       0.00       0.36      0.000
10:31am           188          3          4         87       73.4       42.4      30.35       5.35       41.1       47.6       38.8      30.47       -398       0.02       0.00       0.35      0.000
10:32am           153          4          4         87       73.3       42.4      30.35       5.35       40.1       47.6       38.8      30.47       -399       0.02       0.00       0.35      0.000
10:33am           150          3          5         87       73.4       42.4      30.35       5.35       41.1       47.6       38.8      30.47       -399       0.02       0.00       0.35      0.000
10:34am           159          2          3         87       73.4       42.5      30.35       5.35       42.5       47.7       38.9      30.47       -398       0.02       0.00       0.35      0.000
10:35am           194          2          6         87       73.4       42.5      30.35       5.35       42.5       47.7       38.9      30.47       -398       0.02       0.00       0.35      0.000
10:36am           195          4          4         87       73.4       42.5      30.36       5.35       40.2       47.7       38.9      30.47       -400       0.02       0.00       0.34      0.000
10:37am           209          6          6         87       73.4       42.5      30.36       5.35       38.7       47.7       38.9      30.47       -400       0.02       0.00       0.34      0.000
10:38am           103          4          6         87       73.4       42.5      30.36       5.35       40.2       47.7       38.9      30.47       -402       0.02       0.00       0.34      0.000
10:39am           126          3          4         87       73.4       42.6      30.36       5.35       41.3       47.8       39.0      30.47       -401       0.02       0.00       0.34      0.000
10:40am           165          3          6         87       73.4       42.6      30.36       5.35       41.3       47.8       39.0      30.47       -401       0.02       0.00       0.34      0.000
10:41am           136          2          3         87       73.4       42.6      30.36       5.35       42.6       47.8       39.0      30.47       -401       0.02       0.00       0.33      0.000
10:42am           179          3          5         87       73.4       42.6      30.36       5.35       41.3       47.8       39.0      30.47       -400       0.02       0.00       0.33      0.000
10:43am           178          1          3         87       73.3       42.6      30.36       5.35       42.6       47.8       39.0      30.47       -402       0.02       0.00       0.33      0.000
10:44am           135          3          5         87       73.4       42.7      30.36       5.35       41.4       47.9       39.1      30.47       -402       0.02       0.00       0.33      0.000
10:45am           193          4          6         87       73.4       42.7      30.36       5.35       40.4       47.9       39.1      30.47       -401       0.02       0.00       0.32      0.000
10:46am           150          4          4         87       73.4       42.7      30.36       5.35       40.4       47.9       39.1      30.47       -400       0.02       0.00       0.32      0.000
10:47am           238          1          5         87       73.4       42.7      30.36       5.35       42.7       47.9       39.1      30.47       -400       0.02       0.00       0.32      0.000
10:48am            70          3          6         87       73.4       42.7      30.35       5.35       41.4       47.9       39.1      30.47       -399       0.02       0.00       0.31      0.000
10:49am           129          1          3         87       73.4       42.7      30.35       5.35       42.7       47.9       39.1      30.47       -399       0.02       0.00       0.31      0.000
10:50am           165          1          4         87       73.4       42.7      30.35       5.35       42.7       47.9       39.1      30.47       -398       0.02       0.00       0.31      0.000
10:51am           200          2          4         87       73.4       42.7      30.35       5.35       42.7       47.9       39.1      30.46       -397       0.02       0.00       0.31      0.000
10:52am           146          2          3         87       73.4       42.7      30.35       5.35       42.7       47.9       39.1      30.46       -395       0.02       0.00       0.30      0.000
10:53am           148          1          4         87       73.3       42.7      30.35       5.35       42.7       47.9       39.1      30.46       -397       0.02       0.00       0.30      0.000
10:54am           148          1          3         87       73.4       42.7      30.35       5.35       42.7       47.9       39.1      30.46       -397       0.02       0.00       0.30      0.000
10:55am           191          4          5         87       73.3       42.7      30.35       5.35       40.4       47.9       39.1      30.46       -397       0.02       0.00       0.30      0.000
10:56am           153          4          4         87       73.3       42.8      30.35       5.35       40.6       48.0       39.2      30.46       -396       0.02       0.00       0.29      0.000
10:57am           138          2          5         87       73.3       42.8      30.35       5.35       42.8       48.0       39.2      30.46       -396       0.02       0.00       0.29      0.000
10:58am           138          1          2         87       73.3       42.8      30.35       5.35       42.8       48.0       39.2      30.46       -397       0.02       0.00       0.29      0.000
10:59am           202          2          3         87       73.3       42.8      30.35       5.35       42.8       48.0       39.2      30.46       -397       0.02       0.00       0.29      0.000
11:00am           165          3          4         87       73.3       42.8      30.35       5.35       41.5       48.0       39.2      30.46       -397       0.02       0.00       0.29      0.000
11:01am           165          1          3         87       73.3       42.8      30.35       5.35       42.8       48.0       39.2      30.46       -397       0.02       0.00       0.28      0.000
11:02am           168          2          3         87       73.3       42.8      30.35       5.35       42.8       48.0       39.2      30.47       -399       0.02       0.00       0.28      0.000
11:03am           212          1          4         87       73.3       42.9      30.35       5.35       42.9       48.1       39.3      30.46       -397       0.02       0.00       0.28      0.000
11:04am           184          4          4         87       73.3       42.9      30.35       5.35       40.7       48.1       39.3      30.46       -395       0.02       0.00       0.28      0.000
11:05am           228          1          4         87       73.3       42.9      30.35       5.35       42.9       48.1       39.3      30.46       -396       0.02       0.00       0.27      0.000
11:06am           225          3          3         87       73.3       42.9      30.35       5.35       41.6       48.1       39.3      30.46       -394       0.02       0.00       0.27      0.000
11:07am           199          2          5         87       73.3       42.9      30.35       5.35       42.9       48.1       39.3      30.46       -394       0.02       0.00       0.27      0.000
11:08am           148          2          5         87       73.4       42.9      30.35       5.35       42.9       48.1       39.3      30.46       -394       0.02       0.00       0.26      0.000
11:09am           121          2          3         87       73.3       42.9      30.35       5.35       42.9       48.1       39.3      30.46       -394       0.02       0.00       0.26      0.000
11:10am           110          3          4         87       73.4       43.0      30.35       5.35       41.8       48.2       39.4      30.46       -394       0.02       0.00       0.26      0.000
11:11am           183          0          4         86       73.3       43.0      30.35       5.35       43.0       48.1       39.1      30.46       -394       0.02       0.00       0.26      0.000
11:12am           138          2          4         86       73.3       43.0      30.35       5.35       43.0       48.1       39.1      30.46       -394       0.02       0.00       0.26      0.000
11:13am           138          3          4         86       73.3       43.1      30.35       5.35       41.9       48.2       39.2      30.46       -393       0.02       0.00       0.25      0.000
11:14am           118          3          4         86       73.3       43.1      30.35       5.35       41.9       48.2       39.2      30.46       -392       0.02       0.00       0.25      0.000
11:15am           147          3          4         86       73.3       43.1      30.35       5.35       41.9       48.2       39.2      30.46       -392       0.02       0.00       0.25      0.000
11:16am           176          1          3         86       73.3       43.1      30.35       5.35       43.1       48.2       39.2      30.46       -391       0.02       0.00       0.24      0.000
11:17am           181          2          3         86       73.3       43.1      30.35       5.35       43.1       48.2       39.2      30.46       -393       0.02       0.00       0.24      0.000
11:18am           178          3          4         86       73.3       43.1      30.35       5.35       41.9       48.2       39.2      30.46       -392       0.02       0.00       0.24      0.000
11:19am           191          3          3         86       73.3       43.1      30.35       5.35       41.9       48.2       39.2      30.46       -392       0.02       0.00       0.24      0.000
11:20am           204          3          5         86       73.3       43.1      30.35       5.35       41.9       48.2       39.2      30.46       -392       0.02       0.00       0.24      0.000
11:21am           188          2          6         86       73.3       43.1      30.35       5.35       43.1       48.2       39.2      30.46       -393       0.02       0.00       0.23      0.000
11:22am           169          3          4         86       73.3       43.2      30.35       5.35       42.0       48.3       39.3      30.46       -394       0.02       0.00       0.23      0.000
11:23am           122          5          5         86       73.3       43.2      30.35       5.35       40.2       48.3       39.3      30.46       -394       0.02       0.00       0.23      0.000
11:24am           141          2          5         86       73.3       43.2      30.35       5.35       43.2       48.3       39.3      30.46       -393       0.02       0.00       0.23      0.000
11:25am           149          1          4         86       73.3       43.2      30.35       5.35       43.2       48.3       39.3      30.46       -393       0.02       0.00       0.23      0.000
11:26am           127          2          5         86       73.3       43.2      30.35       5.35       43.2       48.3       39.3      30.46       -394       0.02       0.00       0.23      0.000
11:27am           240          3          4         86       73.4       43.2      30.35       5.35       42.0       48.3       39.3      30.46       -394       0.02       0.00       0.22      0.000
11:28am           185          2          3         86       73.3       43.3      30.35       5.35       43.3       48.4       39.4      30.46       -393       0.02       0.00       0.22      0.000
11:29am           131          3          4         86       73.3       43.3      30.35       5.35       42.1       48.4       39.4      30.46       -393       0.02       0.00       0.22      0.000
11:30am           233          5          5         86       73.4       43.3      30.35       5.35       40.3       48.4       39.4      30.46       -395       0.02       0.00       0.22      0.000
11:31am           129          0          5         85       73.4       43.3      30.35       5.35       43.3       48.2       39.1      30.46       -395       0.02       0.00       0.22      0.000
11:32am           129          1          1         85       73.3       43.3      30.35       5.35       43.3       48.2       39.1      30.46       -394       0.02       0.00       0.21      0.000
11:33am           143          3          4         85       73.4       43.3      30.35       5.35       42.1       48.2       39.1      30.46       -393       0.02       0.00       0.21      0.000
11:34am           150          2          4         85       73.4       43.3      30.34       5.35       43.3       48.2       39.1      30.45       -389       0.02       0.00       0.21      0.000
11:35am           209          1          5         85       73.4       43.4      30.34       5.35       43.4       48.3       39.2      30.45       -389       0.02       0.00       0.21      0.000
11:36am           138          5          5         85       73.3       43.4      30.34       5.35       40.5       48.3       39.2      30.45       -387       0.02       0.00       0.21      0.000
11:37am           121          3          5         85       73.3       43.4      30.34       5.35       42.2       48.3       39.2      30.45       -387       0.02       0.00       0.20      0.000
11:38am           134          2          5         85       73.3       43.4      30.34       5.35       43.4       48.3       39.2      30.45       -387       0.02       0.00       0.20      0.000
11:39am           158          4          5         85       73.4       43.4      30.34       5.35       41.2       48.3       39.2      30.45       -387       0.02       0.00       0.20      0.000
11:40am           134          2          4         85       73.3       43.4      30.34       5.35       43.4       48.3       39.2      30.45       -388       0.02       0.00       0.20      0.000
11:41am           112          4          5         85       73.3       43.5      30.34       5.35       41.4       48.4       39.3      30.45       -388       0.02       0.00       0.19      0.000
11:42am           185          3          5         85       73.4       43.5      30.34       5.35       42.3       48.4       39.3      30.46       -390       0.02       0.00       0.19      0.000
11:43am           203          3          5         85       73.3       43.5      30.34       5.35       42.3       48.4       39.3      30.45       -388       0.02       0.00       0.19      0.000
11:44am           150          2          4         85       73.4       43.5      30.34       5.35       43.5       48.4       39.3      30.45       -387       0.02       0.00       0.19      0.000
11:45am           162          4          4         85       73.3       43.5      30.34       5.35       41.4       48.4       39.3      30.45       -386       0.02       0.00       0.19      0.000
11:46am           209          1          5         85       73.3       43.5      30.34       5.35       43.5       48.4       39.3      30.45       -385       0.02       0.00       0.18      0.000
11:47am           157          3          4         85       73.4       43.5      30.34       5.35       42.3       48.4       39.3      30.45       -383       0.02       0.00       0.18      0.000
11:48am           143          4          5         85       73.4       43.5      30.34       5.35       41.4       48.4       39.3      30.45       -383       0.02       0.00       0.18      0.000
11:49am           150          2          6         84       73.4       43.5      30.34       5.35       43.5       48.3       39.0      30.45       -384       0.02       0.00       0.18      0.000
11:50am           150          1          2         84       73.4       43.5      30.34       5.35       43.5       48.3       39.0      30.45       -383       0.02       0.00       0.18      0.000
11:51am           158          1          6         84       73.4       43.6      30.34       5.35       43.6       48.4       39.1      30.45       -383       0.02       0.00       0.18      0.000
11:52am           129          3          3         84       73.4       43.6      30.34       5.35       42.4       48.4       39.1      30.45       -383       0.02       0.00       0.17      0.000
11:53am           131          3          5         84       73.4       43.6      30.34       5.35       42.4       48.4       39.1      30.45       -382       0.02       0.00       0.17      0.000
11:54am           167          6          6         84       73.4       43.6      30.33       5.35       40.0       48.4       39.1      30.44       -378       0.02       0.00       0.17      0.000
11:55am            81          5          7         84       73.4       43.6      30.33       5.35       40.7       48.4       39.1      30.44       -378       0.02       0.00       0.17      0.000
11:56am           160          3          5         84       73.4       43.6      30.33       5.35       42.4       48.4       39.1      30.45       -381       0.02       0.00       0.17      0.000
11:57am           153          2          5         84       73.4       43.6      30.33       5.35       43.6       48.4       39.1      30.45       -381       0.02       0.00       0.17      0.000
11:58am           131          3          4         84       73.4       43.6      30.33       5.35       42.4       48.4       39.1      30.45       -381       0.02       0.00       0.16      0.000
11:59am           176          1          5         84       73.4       43.7      30.33       5.35       43.7       48.5       39.2      30.45       -381       0.02       0.00       0.16      0.000
12:00pm           120          2          3         84       73.4       43.7      30.33       5.35       43.7       48.5       39.2      30.44       -380       0.02       0.00       0.16      0.000
12:01pm           135          2          3         84       73.4       43.7      30.33       5.35       43.7       48.5       39.2      30.44       -379       0.02       0.00       0.16      0.000
12:02pm           159          5          5         84       73.4       43.7      30.33       5.35       40.8       48.5       39.2      30.44       -377       0.02       0.00       0.15      0.000
12:03pm           149          5          6         84       73.4       43.7      30.33       5.35       40.8       48.5       39.2      30.44       -377       0.02       0.00       0.15      0.000
12:04pm           130          3          5         84       73.4       43.7      30.33       5.35       42.6       48.5       39.2      30.44       -378       0.02       0.00       0.15      0.000
12:05pm           143          2          5         84       73.4       43.7      30.33       5.35       43.7       48.5       39.2      30.44       -375       0.02       0.00       0.15      0.000
12:06pm           173          2          3         84       73.4       43.8      30.33       5.35       43.8       48.6       39.3      30.44       -376       0.02       0.00       0.15      0.000
12:07pm           141          2          3         84       73.4       43.8      30.33       5.35       43.8       48.6       39.3      30.44       -375       0.02       0.00       0.15      0.000
12:08pm           172          3          5         84       73.4       43.8      30.33       5.35       42.7       48.6       39.3      30.44       -375       0.02       0.00       0.15      0.000
12:09pm           162          1          6         84       73.4       43.8      30.33       5.35       43.8       48.6       39.3      30.44       -374       0.02       0.00       0.14      0.000
12:10pm           160          0          3         84       73.4       43.8      30.33       5.35       43.8       48.6       39.3      30.44       -375       0.02       0.00       0.14      0.000
12:11pm           160          2          2         84       73.4       43.8      30.33       5.35       43.8       48.6       39.3      30.44       -375       0.02       0.00       0.14      0.000
12:12pm           180          4          4         84       73.4       43.8      30.33       5.35       41.7       48.6       39.3      30.44       -375       0.02       0.00       0.14      0.000
12:13pm           173          1          4         84       73.4       43.8      30.33       5.35       43.8       48.6       39.3      30.44       -374       0.02       0.00       0.14      0.000
12:14pm           175          4          4         84       73.4       43.8      30.33       5.35       41.7       48.6       39.3      30.44       -373       0.02       0.00       0.14      0.000
12:15pm           172          1          4         84       73.4       43.9      30.33       5.35       43.9       48.7       39.4      30.44       -373       0.02       0.00       0.13      0.000
12:16pm           183          2          3         84       73.4       43.9      30.32       5.35       43.9       48.7       39.4      30.43       -371       0.02       0.00       0.13      0.000
12:17pm           183          2          2         84       73.4       43.9      30.32       5.35       43.9       48.7       39.4      30.43       -368       0.02       0.00       0.13      0.000
12:18pm           209          5          5         84       73.4       43.9      30.32       5.35       41.1       48.7       39.4      30.43       -368       0.02       0.00       0.13      0.000
12:19pm           216          5          5         84       73.4       43.9      30.32       5.35       41.1       48.7       39.4      30.43       -366       0.02       0.00       0.13      0.000
12:20pm           139          2          5         84       73.4       43.9      30.32       5.35       43.9       48.7       39.4      30.43       -365       0.02       0.00       0.13      0.000
12:21pm           138          0          3         84       73.4       44.0      30.32       5.35       44.0       48.8       39.5      30.43       -365       0.02       0.00       0.13      0.000
12:22pm           180          5          5         84       73.4       44.0      30.31       5.35       41.2       48.8       39.5      30.43       -363       0.02       0.00       0.12      0.000
12:23pm           170          0          5         84       73.4       44.0      30.31       5.35       44.0       48.8       39.5      30.42       -360       0.02       0.00       0.12      0.000
12:24pm           202          5          5         84       73.4       44.0      30.31       5.35       41.2       48.8       39.5      30.42       -361       0.02       0.00       0.12      0.000
12:25pm           129          4          5         84       73.4       44.0      30.31       5.35       41.9       48.8       39.5      30.42       -361       0.02       0.00       0.12      0.000
12:26pm           139          2          5         84       73.4       44.0      30.31       5.35       44.0       48.8       39.5      30.42       -361       0.02       0.00       0.12      0.000
12:27pm           169          4          4         84       73.4       44.0      30.31       5.35       41.9       48.8       39.5      30.42       -360       0.02       0.00       0.12      0.000
12:28pm           165          5          8         85       73.4       44.1      30.31       5.35       41.3       49.0       39.9      30.42       -360       0.02       0.00       0.12      0.000
12:29pm           187          2          5         85       73.4       44.1      30.31       5.35       44.1       49.0       39.9      30.42       -361       0.02       0.00       0.12      0.000
12:30pm           118          2          4         85       73.4       44.1      30.31       5.35       44.1       49.0       39.9      30.42       -360       0.02       0.00       0.12      0.000
12:31pm           120          1          3         85       73.4       44.1      30.31       5.35       44.1       49.0       39.9      30.42       -360       0.02       0.00       0.11      0.000
12:32pm           141          4          6         85       73.4       44.1      30.31       5.35       42.1       49.0       39.9      30.42       -360       0.02       0.00       0.11      0.000
12:33pm           178          2          4         85       73.4       44.2      30.31       5.35       44.2       49.1       40.0      30.42       -360       0.02       0.00       0.11      0.000
12:34pm           194          2          4         85       73.4       44.1      30.31       5.35       44.1       49.0       39.9      30.42       -360       0.02       0.00       0.11      0.000
12:35pm           212          3          4         85       73.4       44.2      30.31       5.35       43.1       49.1       40.0      30.42       -360       0.02       0.00       0.11      0.000
12:36pm           141          3          4         85       73.4       44.2      30.31       5.35       43.1       49.1       40.0      30.42       -360       0.02       0.00       0.11      0.000
12:37pm           148          4          5         85       73.5       44.2      30.31       5.35       42.2       49.1       40.0      30.42       -359       0.02       0.00       0.11      0.000
12:38pm           137          3          4         85       73.4       44.2      30.31       5.35       43.1       49.1       40.0      30.42       -359       0.02       0.00       0.11      0.000
12:39pm           142          4          4         85       73.4       44.2      30.31       5.35       42.2       49.1       40.0      30.42       -358       0.02       0.00       0.10      0.000
12:40pm           163          1          4         85       73.4       44.2      30.31       5.35       44.2       49.1       40.0      30.42       -359       0.02       0.00       0.10      0.000
12:41pm           187          5          6         85       73.4       44.1      30.31       5.35       41.3       49.0       39.9      30.42       -357       0.02       0.00       0.10      0.000
12:42pm           188          1          5         85       73.5       44.1      30.31       5.35       44.1       49.0       39.9      30.42       -356       0.02       0.00       0.10      0.000
12:43pm           207          2          5         85       73.5       44.1      30.31       5.35       44.1       49.0       39.9      30.42       -355       0.02       0.00       0.10      0.000
12:44pm           183          4          7         85       73.5       44.2      30.31       5.35       42.2       49.1       40.0      30.42       -355       0.02       0.00       0.10      0.000
12:45pm           191          2          5         85       73.5       44.2      30.31       5.35       44.2       49.1       40.0      30.42       -356       0.02       0.00       0.10      0.000
12:46pm           208          2          4         86       73.4       44.2      30.31       5.35       44.2       49.3       40.3      30.42       -355       0.02       0.00       0.10      0.000
12:47pm           198          2          4         86       73.5       44.2      30.31       5.35       44.2       49.3       40.3      30.42       -355       0.02       0.00       0.10      0.000
12:48pm           186          0          2         86       73.5       44.2      30.31       5.35       44.2       49.3       40.3      30.42       -355       0.02       0.00       0.09      0.000
12:49pm           230          0          3         86       73.4       44.2      30.30       5.35       44.2       49.3       40.3      30.42       -353       0.02       0.00       0.09      0.000
12:50pm           211          3          3         86       73.4       44.2      30.30       5.35       43.1       49.3       40.3      30.41       -351       0.02       0.00       0.09      0.000
12:51pm           150          2          3         86       73.4       44.2      30.30       5.35       44.2       49.3       40.3      30.41       -349       0.02       0.00       0.09      0.000
12:52pm           138          1          3         86       73.4       44.2      30.30       5.35       44.2       49.3       40.3      30.41       -350       0.02       0.00       0.09      0.000
12:53pm           137          2          3         86       73.4       44.2      30.30       5.35       44.2       49.3       40.3      30.41       -349       0.02       0.00       0.09      0.000
12:54pm           219          2          3         87       73.4       44.3      30.30       5.35       44.3       49.5       40.7      30.41       -351       0.02       0.00       0.09      0.000
12:55pm           165          1          4         87       73.4       44.3      30.30       5.35       44.3       49.5       40.7      30.41       -351       0.02       0.00       0.09      0.000
12:56pm           148          1          3         87       73.4       44.3      30.30       5.35       44.3       49.5       40.7      30.41       -349       0.02       0.00       0.09      0.000
12:57pm           148          2          4         87       73.4       44.3      30.30       5.35       44.3       49.5       40.7      30.41       -349       0.02       0.00       0.09      0.000
12:58pm           148          2          3         87       73.4       44.3      30.30       5.35       44.3       49.5       40.7      30.41       -347       0.02       0.00       0.08      0.000
12:59pm           195          3          3         87       73.4       44.3      30.30       5.35       43.2       49.5       40.7      30.41       -347       0.02       0.00       0.08      0.000
1:00pm            147          2          3         87       73.4       44.4      30.30       5.35       44.4       49.6       40.8      30.41       -346       0.02       0.00       0.08      0.000
1:01pm            147          3          4         87       73.4       44.4      30.30       5.35       43.3       49.6       40.8      30.41       -347       0.02       0.00       0.08      0.000
1:02pm            193          3          4         87       73.4       44.4      30.30       5.35       43.3       49.6       40.8      30.41       -347       0.02       0.00       0.08      0.000
1:03pm            137          2          5         87       73.5       44.3      30.30       5.35       44.3       49.5       40.7      30.41       -346       0.02       0.00       0.08      0.000
1:04pm            148          4          5         87       73.5       44.3      30.30       5.35       42.3       49.5       40.7      30.41       -346       0.02       0.00       0.08      0.000
1:05pm            122          2          6         87       73.4       44.3      30.29       5.35       44.3       49.5       40.7      30.41       -345       0.02       0.00       0.08      0.000
1:06pm            156          2          4         87       73.4       44.3      30.29       5.35       44.3       49.5       40.7      30.41       -345       0.02       0.00       0.08      0.000
1:07pm            156          1          2         87       73.4       44.3      30.29       5.35       44.3       49.5       40.7      30.41       -345       0.02       0.00       0.08      0.000
1:08pm            151          1          3         87       73.5       44.3      30.29       5.35       44.3       49.5       40.7      30.40       -343       0.02       0.00       0.08      0.000
1:09pm            151          2          3         88       73.4       44.3      30.29       5.35       44.3       49.6       41.0      30.40       -341       0.02       0.00       0.07      0.000
1:10pm            154          3          4         88       73.4       44.3      30.29       5.35       43.2       49.6       41.0      30.40       -341       0.02       0.00       0.07      0.000
1:11pm            140          2          5         88       73.4       44.3      30.29       5.35       44.3       49.6       41.0      30.40       -341       0.02       0.00       0.07      0.000
1:12pm            167          2          3         88       73.4       44.3      30.29       5.35       44.3       49.6       41.0      30.40       -341       0.02       0.00       0.07      0.000
1:13pm            150          2          4         88       73.5       44.3      30.29       5.35       44.3       49.6       41.0      30.40       -342       0.02       0.00       0.07      0.000
1:14pm            150          1          2         88       73.5       44.3      30.29       5.35       44.3       49.6       41.0      30.40       -342       0.02       0.00       0.07      0.000
1:15pm            150          2          2         88       73.5       44.3      30.29       5.35       44.3       49.6       41.0      30.40       -342       0.02       0.00       0.07      0.000
1:16pm            155          1          3         89       73.5       44.3      30.29       5.35       44.3       49.8       41.3      30.40       -342       0.02       0.00       0.07      0.000
1:17pm            158          2          3         89       73.5       44.3      30.29       5.35       44.3       49.8       41.3      30.40       -340       0.02       0.00       0.07      0.000
1:18pm            159          2          2         89       73.5       44.4      30.29       5.35       44.4       49.9       41.4      30.40       -338       0.02       0.00       0.07      0.000
1:19pm            148          2          3         89       73.5       44.3      30.28       5.35       44.3       49.8       41.3      30.40       -335       0.02       0.00       0.07      0.000
1:20pm            148          1          3         89       73.5       44.4      30.28       5.35       44.4       49.9       41.4      30.39       -334       0.02       0.00       0.07      0.000
1:21pm            148          1          2         89       73.5       44.3      30.28       5.35       44.3       49.8       41.3      30.39       -334       0.02       0.00       0.07      0.000
1:22pm            148          0          1         89       73.5       44.4      30.28       5.35       44.4       49.9       41.4      30.39       -334       0.02       0.00       0.07      0.000
1:23pm            148          0          2         89       73.5       44.4      30.28       5.35       44.4       49.9       41.4      30.39       -334       0.02       0.00       0.06      0.000
1:24pm            142          2          3         89       73.5       44.4      30.28       5.35       44.4       49.9       41.4      30.39       -333       0.02       0.00       0.06      0.000
1:25pm            143          1          3         89       73.5       44.4      30.28       5.35       44.4       49.9       41.4      30.39       -334       0.02       0.00       0.06      0.000
1:26pm            143          1          2         89       73.5       44.4      30.28       5.35       44.4       49.9       41.4      30.39       -333       0.02       0.00       0.06      0.000
1:27pm            143          1          2         89       73.5       44.4      30.28       5.35       44.4       49.9       41.4      30.39       -334       0.02       0.00       0.06      0.000
1:28pm            143          1          2         89       73.5       44.4      30.28       5.35       44.4       49.9       41.4      30.39       -334       0.02       0.00       0.06      0.000
1:29pm            143          2          2         89       73.5       44.4      30.28       5.35       44.4       49.9       41.4      30.39       -333       0.02       0.00       0.06      0.000
1:30pm            176          3          3         89       73.5       44.4      30.28       5.35       43.3       49.9       41.4      30.39       -330       0.02       0.00       0.06      0.000
1:31pm            198          1          4         89       73.5       44.4      30.28       5.35       44.4       49.9       41.4      30.39       -329       0.02       0.00       0.06      0.000
1:32pm            193          2          4         89       73.5       44.4      30.28       5.35       44.4       49.9       41.4      30.39       -329       0.02       0.00       0.06      0.000
1:33pm            166          2          3         90       73.5       44.4      30.28       5.35       44.4       50.0       41.7      30.39       -328       0.02       0.00       0.06      0.000
1:34pm            163          2          2         90       73.5       44.4      30.28       5.35       44.4       50.0       41.7      30.39       -327       0.02       0.00       0.06      0.000
1:35pm            154          2          3         90       73.5       44.4      30.28       5.35       44.4       50.0       41.7      30.39       -327       0.02       0.00       0.05      0.000
1:36pm            146          2          3         90       73.5       44.4      30.28       5.35       44.4       50.0       41.7      30.39       -327       0.02       0.00       0.05      0.000
1:37pm            146          1          4         90       73.5       44.4      30.28       5.35       44.4       50.0       41.7      30.39       -327       0.02       0.00       0.05      0.000
1:38pm            146          0          1         90       73.5       44.4      30.27       5.35       44.4       50.0       41.7      30.39       -325       0.02       0.00       0.05      0.000
1:39pm            146          1          2         90       73.5       44.4      30.27       5.35       44.4       50.0       41.7      30.39       -325       0.02       0.00       0.05      0.000
1:40pm            146          1          3         90       73.5       44.4      30.27       5.35       44.4       50.0       41.7      30.39       -326       0.02       0.00       0.05      0.000
1:41pm            196          2          4         90       73.5       44.4      30.27       5.35       44.4       50.0       41.7      30.39       -326       0.02       0.00       0.05      0.000
1:42pm            197          2          2         90       73.5       44.5      30.27       5.35       44.5       50.1       41.8      30.39       -326       0.02       0.00       0.05      0.000
1:43pm            211          3          5         90       73.5       44.5      30.28       5.35       43.5       50.1       41.8      30.39       -327       0.02       0.00       0.05      0.000
1:44pm            211          2          3         90       73.5       44.5      30.28       5.35       44.5       50.1       41.8      30.39       -328       0.02       0.00       0.05      0.000
1:45pm            193          2          4         90       73.5       44.5      30.28       5.35       44.5       50.1       41.8      30.39       -328       0.02       0.00       0.05      0.000
1:46pm            186          3          5         90       73.5       44.5      30.28       5.35       43.5       50.1       41.8      30.39       -327       0.02       0.00       0.05      0.000
1:47pm            187          2          4         90       73.5       44.5      30.28       5.35       44.5       50.1       41.8      30.39       -328       0.02       0.00       0.05      0.000
1:48pm            210          4          4         90       73.5       44.5      30.27       5.35       42.5       50.1       41.8      30.39       -325       0.02       0.00       0.05      0.000
1:49pm            178          1          4         90       73.4       44.5      30.27       5.35       44.5       50.1       41.8      30.38       -324       0.02       0.00       0.04      0.000
1:50pm            178          1          1         90       73.5       44.5      30.27       5.35       44.5       50.1       41.8      30.38       -324       0.02       0.00       0.04      0.000
1:51pm            191          1          3         90       73.5       44.5      30.27       5.35       44.5       50.1       41.8      30.38       -323       0.02       0.00       0.04      0.000
1:52pm            212          4          4         90       73.5       44.5      30.27       5.35       42.5       50.1       41.8      30.38       -324       0.02       0.00       0.04      0.000
1:53pm            208          3          4         91       73.5       44.5      30.27       5.35       43.5       50.3       42.0      30.38       -324       0.02       0.00       0.04      0.000
1:54pm            200          2          4         91       73.5       44.5      30.27       5.35       44.5       50.3       42.0      30.38       -324       0.02       0.00       0.04      0.000
1:55pm            206          2          4         91       73.5       44.5      30.27       5.35       44.5       50.3       42.0      30.38       -324       0.02       0.00       0.04      0.000
1:56pm            204          3          4         91       73.4       44.5      30.27       5.35       43.5       50.3       42.0      30.38       -324       0.02       0.00       0.04      0.000
1:57pm            212          2          3         91       73.4       44.6      30.27       5.35       44.6       50.4       42.1      30.38       -324       0.02       0.00       0.04      0.000
1:58pm            198          3          4         91       73.5       44.6      30.27       5.35       43.6       50.4       42.1      30.38       -324       0.02       0.00       0.04      0.000
1:59pm            179          3          3         91       73.5       44.6      30.27       5.35       43.6       50.4       42.1      30.38       -324       0.02       0.00       0.04      0.000
2:00pm            183          3          4         91       73.5       44.6      30.27       5.35       43.6       50.4       42.1      30.38       -324       0.02       0.00       0.04      0.000
2:01pm            197          2          4         91       73.5       44.6      30.27       5.35       44.6       50.4       42.1      30.38       -324       0.02       0.00       0.04      0.000
2:02pm            198          3          4         91       73.5       44.6      30.27       5.35       43.6       50.4       42.1      30.39       -325       0.02       0.00       0.04      0.000
2:03pm            198          1          3         91       73.5       44.6      30.28       5.35       44.6       50.4       42.1      30.39       -327       0.02       0.00       0.04      0.000
2:04pm            200          3          3         91       73.5       44.6      30.27       5.35       43.6       50.4       42.1      30.39       -326       0.02       0.00       0.03      0.000
2:05pm            193          2          4         91       73.5       44.6      30.27       5.35       44.6       50.4       42.1      30.39       -326       0.02       0.00       0.03      0.000
2:06pm            193          1          3         91       73.5       44.6      30.27       5.35       44.6       50.4       42.1      30.39       -326       0.02       0.00       0.03      0.000
2:07pm            186          3          3         91       73.5       44.6      30.27       5.35       43.6       50.4       42.1      30.39       -326       0.02       0.00       0.03      0.000
2:08pm            185          1          3         91       73.5       44.6      30.27       5.35       44.6       50.4       42.1      30.39       -326       0.02       0.00       0.03      0.000
2:09pm            174          2          3         91       73.5       44.6      30.27       5.35       44.6       50.4       42.1      30.39       -325       0.02       0.00       0.03      0.000
2:10pm            211          1          4         91       73.5       44.6      30.27       5.35       44.6       50.4       42.1      30.39       -325       0.02       0.00       0.03      0.000
2:11pm            212          2          3         91       73.5       44.6      30.27       5.35       44.6       50.4       42.1      30.38       -324       0.02       0.00       0.03      0.000
2:12pm            212          3          3         91       73.5       44.6      30.27       5.35       43.6       50.4       42.1      30.38       -324       0.02       0.00       0.03      0.000
2:13pm            184          4          4         91       73.5       44.6      30.27       5.35       42.6       50.4       42.1      30.38       -324       0.02       0.00       0.03      0.000
2:14pm            184          1          4         91       73.5       44.6      30.27       5.35       44.6       50.4       42.1      30.38       -324       0.02       0.00       0.03      0.000
2:15pm            184          1          1         91       73.5       44.6      30.27       5.35       44.6       50.4       42.1      30.38       -324       0.02       0.00       0.03      0.000
2:16pm            184          1          2         91       73.5       44.6      30.27       5.35       44.6       50.4       42.1      30.38       -322       0.02       0.00       0.03      0.000
2:17pm            195          3          3         91       73.5       44.6      30.27       5.35       43.6       50.4       42.1      30.38       -323       0.02       0.00       0.03      0.000
2:18pm            195          2          4         91       73.5       44.6      30.27       5.35       44.6       50.4       42.1      30.38       -323       0.02       0.00       0.03      0.000
2:19pm            195          2          2         91       73.6       44.6      30.27       5.35       44.6       50.4       42.1      30.38       -322       0.02       0.00       0.03      0.000
2:20pm            195          2          2         91       73.6       44.6      30.27       5.35       44.6       50.4       42.1      30.38       -322       0.02       0.00       0.03      0.000
2:21pm            196          1          3         91       73.5       44.6      30.27       5.35       44.6       50.4       42.1      30.38       -322       0.02       0.00       0.03      0.000
2:22pm            175          2          3         91       73.5       44.6      30.27       5.35       44.6       50.4       42.1      30.38       -321       0.02       0.00       0.03      0.000
2:23pm            171          2          2         91       73.6       44.6      30.27       5.35       44.6       50.4       42.1      30.38       -322       0.02       0.00       0.03      0.000
2:24pm            186          3          4         91       73.6       44.7      30.27       5.35       43.7       50.5       42.2      30.38       -319       0.02       0.00       0.03      0.000
2:25pm            134          3          4         91       73.5       44.7      30.26       5.35       43.7       50.5       42.2      30.38       -317       0.02       0.00       0.03      0.000
2:26pm            155          1          3         91       73.5       44.7      30.26       5.35       44.7       50.5       42.2      30.38       -317       0.02       0.00       0.03      0.000
2:27pm            146          1          2         91       73.6       44.6      30.26       5.35       44.6       50.4       42.1      30.37       -315       0.02       0.00       0.03      0.000
2:28pm            150          2          3         91       73.6       44.7      30.26       5.35       44.7       50.5       42.2      30.37       -314       0.02       0.00       0.03      0.000
2:29pm            150          1          2         91       73.5       44.7      30.26       5.35       44.7       50.5       42.2      30.37       -314       0.02       0.00       0.03      0.000
2:30pm            152          2          2         92       73.6       44.7      30.26       5.35       44.7       50.6       42.5      30.37       -313       0.02       0.00       0.03      0.000
2:31pm            198          2          4         92       73.6       44.7      30.26       5.35       44.7       50.6       42.5      30.37       -315       0.02       0.00       0.03      0.000
2:32pm            191          3          3         92       73.6       44.7      30.26       5.35       43.7       50.6       42.5      30.38       -316       0.02       0.00       0.03      0.000
2:33pm            145          3          5         92       73.6       44.8      30.26       5.35       43.8       50.7       42.6      30.38       -316       0.02       0.00       0.03      0.000
2:34pm            140          2          4         92       73.6       44.8      30.26       5.35       44.8       50.7       42.6      30.38       -316       0.02       0.00       0.03      0.000
2:35pm            212          4          4         92       73.6       44.8      30.26       5.35       42.9       50.7       42.6      30.38       -317       0.02       0.00       0.03      0.000
2:36pm            184          2          6         92       73.6       44.8      30.26       5.35       44.8       50.7       42.6      30.38       -317       0.02       0.00       0.03      0.000
2:37pm            223          5          5         92       73.6       44.9      30.26       5.35       42.2       50.8       42.7      30.37       -315       0.02       0.00       0.03      0.000
2:38pm            180          1          6         92       73.6       44.9      30.26       5.35       44.9       50.8       42.7      30.38       -317       0.02       0.00       0.03      0.000
2:39pm            180          2          2         92       73.5       44.9      30.26       5.35       44.9       50.8       42.7      30.37       -314       0.02       0.00       0.03      0.000
2:40pm            180          2          3         92       73.5       44.9      30.26       5.35       44.9       50.8       42.7      30.37       -313       0.02       0.00       0.03      0.000
2:41pm            141          4          4         92       73.5       44.9      30.26       5.35       43.0       50.8       42.7      30.37       -313       0.02       0.00       0.03      0.000
2:42pm            206          2          5         92       73.5       44.9      30.26       5.35       44.9       50.8       42.7      30.37       -313       0.02       0.00       0.03      0.000
2:43pm            199          2          3         92       73.5       45.0      30.26       5.35       45.0       50.9       42.8      30.37       -314       0.02       0.00       0.03      0.000
2:44pm            161          2          3         92       73.5       45.0      30.26       5.35       45.0       50.9       42.8      30.37       -314       0.02       0.00       0.03      0.000
2:45pm            162          3          4         92       73.5       45.0      30.26       5.35       44.0       50.9       42.8      30.37       -314       0.02       0.00       0.03      0.000
2:46pm            139          2          4         92       73.6       45.0      30.26       5.35       45.0       50.9       42.8      30.37       -315       0.02       0.00       0.03      0.000
2:47pm            139          1          3         92       73.6       45.0      30.26       5.35       45.0       50.9       42.8      30.37       -315       0.02       0.00       0.03      0.000
2:48pm            139          3          3         92       73.6       45.0      30.26       5.35       44.0       50.9       42.8      30.37       -313       0.02       0.00       0.03      0.000
2:49pm            172          1          6         92       73.6       45.0      30.26       5.35       45.0       50.9       42.8      30.37       -310       0.02       0.00       0.03      0.000
2:50pm            156          3          3         92       73.6       45.0      30.26       5.35       44.0       50.9       42.8      30.37       -309       0.02       0.00       0.03      0.000
2:51pm            143          4          5         92       73.6       45.0      30.26       5.35       43.1       50.9       42.8      30.37       -309       0.02       0.00       0.03      0.000
2:52pm            177          2          5         92       73.6       45.0      30.26       5.35       45.0       50.9       42.8      30.37       -309       0.02       0.00       0.03      0.000
2:53pm            158          0          5         92       73.6       45.0      30.25       5.35       45.0       50.9       42.8      30.36       -305       0.02       0.00       0.03      0.000
2:54pm            189          4          4         92       73.6       44.9      30.25       5.35       43.0       50.8       42.7      30.36       -305       0.02       0.00       0.03      0.000
2:55pm            165          4          4         92       73.5       44.9      30.25       5.35       43.0       50.8       42.7      30.36       -304       0.02       0.00       0.03      0.000
2:56pm            160          2          4         92       73.6       45.0      30.25       5.35       45.0       50.9       42.8      30.36       -301       0.02       0.00       0.03      0.000
2:57pm            160          2          3         92       73.6       44.9      30.25       5.35       44.9       50.8       42.7      30.36       -300       0.02       0.00       0.03      0.000
2:58pm            145          3          3         92       73.6       45.0      30.25       5.35       44.0       50.9       42.8      30.36       -301       0.02       0.00       0.03      0.000
2:59pm            141          2          4         92       73.6       45.0      30.25       5.35       45.0       50.9       42.8      30.36       -301       0.02       0.00       0.03      0.000
3:00pm            131          3          4         92       73.6       45.0      30.25       5.35       44.0       50.9       42.8      30.36       -300       0.02       0.00       0.03      0.000
3:01pm            131          2          3         92       73.6       45.0      30.24       5.35       45.0       50.9       42.8      30.35       -298       0.02       0.00       0.03      0.000
3:02pm            169          2          4         92       73.5       45.0      30.24       5.35       45.0       50.9       42.8      30.35       -298       0.02       0.00       0.03      0.000
3:03pm            165          3          3         92       73.6       45.0      30.24       5.35       44.0       50.9       42.8      30.35       -297       0.02       0.00       0.03      0.000
3:04pm            165          2          3         92       73.6       45.0      30.24       5.35       45.0       50.9       42.8      30.35       -298       0.02       0.00       0.03      0.000
3:05pm            211          3          4         92       73.6       45.0      30.24       5.35       44.0       50.9       42.8      30.35       -295       0.02       0.00       0.03      0.000
3:06pm            133          2          3         92       73.6       45.0      30.24       5.35       45.0       50.9       42.8      30.35       -295       0.02       0.00       0.03      0.000
3:07pm            131          2          3         92       73.6       45.0      30.24       5.35       45.0       50.9       42.8      30.35       -294       0.02       0.00       0.03      0.000
3:08pm            129          2          3         92       73.5       45.0      30.24       5.35       45.0       50.9       42.8      30.35       -294       0.02       0.00       0.03      0.000
3:09pm            130          2          2         92       73.6       45.0      30.24       5.35       45.0       50.9       42.8      30.35       -294       0.02       0.00       0.03      0.000
3:10pm            130          1          2         92       73.6       45.0      30.24       5.35       45.0       50.9       42.8      30.35       -294       0.02       0.00       0.03      0.000
3:11pm            184          2          3         92       73.6       45.1      30.24       5.35       45.1       51.0       42.9      30.35       -295       0.02       0.00       0.03      0.000
3:12pm            167          3          3         92       73.6       45.1      30.24       5.35       44.1       51.0       42.9      30.35       -298       0.02       0.00       0.03      0.000
3:13pm            167          1          3         92       73.6       45.1      30.24       5.35       45.1       51.0       42.9      30.35       -298       0.02       0.00       0.03      0.000
3:14pm            179          2          2         92       73.6       45.1      30.24       5.35       45.1       51.0       42.9      30.35       -298       0.02       0.00       0.03      0.000
3:15pm            202          1          3         92       73.6       45.1      30.24       5.35       45.1       51.0       42.9      30.36       -299       0.02       0.00       0.03      0.000
3:16pm            205          3          3         92       73.6       45.1      30.25       5.35       44.1       51.0       42.9      30.36       -300       0.02       0.00       0.03      0.000
3:17pm            205          1          3         92       73.6       45.1      30.24       5.35       45.1       51.0       42.9      30.36       -299       0.02       0.00       0.03      0.000
3:18pm            205          2          3         92       73.6       45.2      30.24       5.35       45.2       51.1       43.0      30.36       -299       0.02       0.00       0.03      0.000
3:19pm            205          1          2         92       73.6       45.2      30.24       5.35       45.2       51.1       43.0      30.36       -299       0.02       0.00       0.03      0.000
3:20pm            205          2          2         92       73.6       45.2      30.25       5.35       45.2       51.1       43.0      30.36       -301       0.02       0.00       0.03      0.000
3:21pm            205          2          3         92       73.6       45.2      30.25       5.35       45.2       51.1       43.0      30.36       -302       0.02       0.00       0.03      0.000
3:22pm            205          2          2         92       73.6       45.2      30.25       5.35       45.2       51.1       43.0      30.36       -302       0.02       0.00       0.03      0.000
3:23pm            205          2          2         92       73.6       45.2      30.25       5.35       45.2       51.1       43.0      30.36       -302       0.02       0.00       0.03      0.000
3:24pm            237          2          3         92       73.6       45.2      30.25       5.35       45.2       51.1       43.0      30.36       -303       0.02       0.00       0.03      0.000
3:25pm            203          2          3         92       73.6       45.2      30.25       5.35       45.2       51.1       43.0      30.36       -305       0.02       0.00       0.03      0.000
3:26pm            224          2          3         92       73.6       45.2      30.25       5.35       45.2       51.1       43.0      30.36       -305       0.02       0.00       0.03      0.000
3:27pm            227          1          3         92       73.6       45.3      30.26       5.35       45.3       51.2       43.1      30.37       -310       0.02       0.00       0.03      0.000
3:28pm            227          2          3         92       73.6       45.3      30.26       5.35       45.3       51.2       43.1      30.37       -310       0.02       0.00       0.03      0.000
3:29pm            229          2          3         92       73.6       45.3      30.26       5.35       45.3       51.2       43.1      30.37       -311       0.02       0.00       0.03      0.000
3:30pm            229          0          2         93       73.6       45.3      30.26       5.35       45.3       51.4       43.4      30.37       -312       0.02       0.00       0.03      0.000
3:31pm            240          3          3         93       73.6       45.3      30.26       5.35       44.4       51.4       43.4      30.37       -311       0.02       0.00       0.03      0.000
3:32pm            245          1          3         93       73.6       45.3      30.26       5.35       45.3       51.4       43.4      30.37       -311       0.02       0.00       0.03      0.000
3:33pm            245          0          1         93       73.6       45.2      30.26       5.35       45.2       51.3       43.3      30.37       -309       0.02       0.00       0.03      0.000
3:34pm            245          1          2         93       73.6       45.2      30.25       5.35       45.2       51.3       43.3      30.36       -307       0.02       0.00       0.03      0.000
3:35pm            245          1          1         93       73.6       45.2      30.25       5.35       45.2       51.3       43.3      30.36       -307       0.02       0.00       0.02      0.000
3:36pm            245          0          1         93       73.6       45.2      30.25       5.35       45.2       51.3       43.3      30.36       -303       0.02       0.00       0.02      0.000
3:37pm            226          1          2         92       73.6       45.2      30.25       5.35       45.2       51.1       43.0      30.36       -303       0.02       0.00       0.02      0.000
3:38pm            207          1          2         92       73.6       45.2      30.25       5.35       45.2       51.1       43.0      30.36       -303       0.02       0.00       0.02      0.000
3:39pm            207          1          2         92       73.6       45.2      30.25       5.35       45.2       51.1       43.0      30.36       -303       0.02       0.00       0.02      0.000
3:40pm            207          1          1         92       73.6       45.2      30.25       5.35       45.2       51.1       43.0      30.36       -303       0.02       0.00       0.02      0.000
3:41pm            207          0          1         92       73.6       45.2      30.25       5.35       45.2       51.1       43.0      30.36       -300       0.02       0.00       0.02      0.000
3:42pm            207          2          2         92       73.6       45.2      30.25       5.35       45.2       51.1       43.0      30.36       -300       0.02       0.00       0.02      0.000
3:43pm            207          1          2         92       73.6       45.2      30.24       5.35       45.2       51.1       43.0      30.36       -299       0.02       0.00       0.02      0.000
3:44pm            207          1          1         92       73.6       45.2      30.24       5.35       45.2       51.1       43.0      30.35       -298       0.02       0.00       0.02      0.000
3:45pm            203          1          3         92       73.6       45.2      30.24       5.35       45.2       51.1       43.0      30.35       -297       0.02       0.00       0.02      0.000
3:46pm            203          1          1         92       73.6       45.2      30.24       5.35       45.2       51.1       43.0      30.35       -295       0.02       0.00       0.02      0.000
3:47pm            203          0          2         93       73.6       45.3      30.24       5.35       45.3       51.4       43.4      30.35       -294       0.02       0.00       0.02      0.000
3:48pm            203          2          2         93       73.6       45.3      30.24       5.35       45.3       51.4       43.4      30.35       -298       0.02       0.00       0.02      0.000
3:49pm            203          1          2         93       73.6       45.3      30.24       5.35       45.3       51.4       43.4      30.35       -297       0.02       0.00       0.02      0.000
3:50pm            184          2          3         93       73.5       45.3      30.24       5.35       45.3       51.4       43.4      30.35       -297       0.02       0.00       0.02      0.000
3:51pm            184          1          2         93       73.5       45.3      30.24       5.35       45.3       51.4       43.4      30.35       -297       0.02       0.00       0.02      0.000
3:52pm            184          1          2         93       73.5       45.3      30.24       5.35       45.3       51.4       43.4      30.35       -295       0.02       0.00       0.02      0.000
3:53pm            184          1          2         93       73.5       45.4      30.24       5.35       45.4       51.5       43.5      30.35       -294       0.02       0.00       0.02      0.000
3:54pm            184          0          1         93       73.5       45.4      30.24       5.35       45.4       51.5       43.5      30.35       -297       0.02       0.00       0.02      0.000
3:55pm            184          0          1         93       73.5       45.4      30.24       5.35       45.4       51.5       43.5      30.35       -298       0.02       0.00       0.02      0.000
3:56pm            184          0          0         93       73.5       45.4      30.24       5.35       45.4       51.5       43.5      30.35       -298       0.02       0.00       0.02      0.000
3:57pm            184          0          1         93       73.5       45.5      30.24       5.35       45.5       51.6       43.6      30.35       -298       0.02       0.00       0.02      0.000
3:58pm            184          0          0         93       73.5       45.5      30.24       5.35       45.5       51.6       43.6      30.35       -294       0.02       0.00       0.02      0.000
3:59pm            184          0          0         93       73.5       45.5      30.24       5.35       45.5       51.6       43.6      30.35       -294       0.02       0.00       0.02      0.000
4:00pm            184          0          1         93       73.5       45.5      30.24       5.35       45.5       51.6       43.6      30.35       -293       0.02       0.00       0.02      0.000
4:01pm            184          0          0         93       73.5       45.5      30.24       5.35       45.5       51.6       43.6      30.35       -293       0.02       0.00       0.02      0.000
4:02pm            184          0          1         93       73.5       45.5      30.24       5.35       45.5       51.6       43.6      30.35       -293       0.02       0.00       0.02      0.000
4:03pm            184          0          0         93       73.5       45.5      30.24       5.35       45.5       51.6       43.6      30.35       -292       0.02       0.00       0.02      0.000
4:04pm            184          0          0         93       73.5       45.5      30.24       5.35       45.5       51.6       43.6      30.35       -291       0.02       0.00       0.02      0.000
4:05pm            184          0          0         93       73.5       45.5      30.24       5.35       45.5       51.6       43.6      30.35       -291       0.02       0.00       0.02      0.000
4:06pm            184          0          0         93       73.5       45.5      30.24       5.35       45.5       51.6       43.6      30.35       -292       0.02       0.00       0.02      0.000
4:07pm            184          0          0         93       73.5       45.5      30.24       5.35       45.5       51.6       43.6      30.35       -292       0.02       0.00       0.02      0.000
4:08pm            184          0          0         93       73.5       45.5      30.24       5.35       45.5       51.6       43.6      30.35       -291       0.02       0.00       0.02      0.000
4:09pm            184          0          1         93       73.5       45.5      30.23       5.35       45.5       51.6       43.6      30.34       -288       0.02       0.00       0.02      0.000
4:10pm            184          0          1         93       73.5       45.6      30.23       5.35       45.6       51.7       43.7      30.34       -286       0.02       0.00       0.02      0.000
4:11pm            184          0          0         93       73.5       45.6      30.23       5.35       45.6       51.7       43.7      30.34       -284       0.02       0.00       0.02      0.000
4:12pm            184          1          1         93       73.5       45.6      30.23       5.35       45.6       51.7       43.7      30.34       -284       0.02       0.00       0.02      0.000
4:13pm            184          0          1         93       73.5       45.6      30.23       5.35       45.6       51.7       43.7      30.34       -285       0.02       0.00       0.02      0.000
4:14pm            184          0          1         93       73.5       45.6      30.23       5.35       45.6       51.7       43.7      30.34       -284       0.02       0.00       0.02      0.000
4:15pm            184          0          0         93       73.5       45.6      30.23       5.35       45.6       51.7       43.7      30.34       -286       0.02       0.00       0.02      0.000
4:16pm            184          1          1         93       73.5       45.6      30.23       5.35       45.6       51.7       43.7      30.34       -286       0.02       0.00       0.02      0.000
4:17pm            184          0          1         93       73.5       45.6      30.23       5.35       45.6       51.7       43.7      30.34       -287       0.02       0.00       0.02      0.000
4:18pm            184          0          1         93       73.5       45.6      30.23       5.35       45.6       51.7       43.7      30.34       -283       0.02       0.00       0.02      0.000
4:19pm            184          0          0         93       73.5       45.7      30.23       5.35       45.7       51.8       43.8      30.34       -283       0.02       0.00       0.02      0.000
4:20pm            184          0          0         93       73.5       45.7      30.23       5.35       45.7       51.8       43.8      30.34       -284       0.02       0.00       0.02      0.000
4:21pm            184          0          0         93       73.4       45.7      30.23       5.35       45.7       51.8       43.8      30.34       -284       0.02       0.00       0.02      0.000
4:22pm            184          0          0         93       73.5       45.7      30.23       5.35       45.7       51.8       43.8      30.34       -282       0.02       0.00       0.02      0.000
4:23pm            184          0          0         93       73.5       45.8      30.23       5.35       45.8       51.9       43.9      30.34       -286       0.02       0.00       0.02      0.000
4:24pm            184          1          1         93       73.5       45.8      30.23       5.35       45.8       51.9       43.9      30.34       -286       0.02       0.00       0.02      0.000
4:25pm            184          1          2         93       73.5       45.8      30.23       5.35       45.8       51.9       43.9      30.34       -286       0.02       0.00       0.02      0.000
4:26pm            184          0          1         93       73.5       45.8      30.23       5.35       45.8       51.9       43.9      30.34       -286       0.02       0.00       0.02      0.000
4:27pm            184          0          2         93       73.4       45.8      30.23       5.35       45.8       51.9       43.9      30.34       -287       0.02       0.00       0.02      0.000
4:28pm            184          0          0         93       73.4       45.8      30.23       5.35       45.8       51.9       43.9      30.34       -287       0.02       0.00       0.02      0.000
4:29pm            184          0          0         93       73.4       45.8      30.23       5.35       45.8       51.9       43.9      30.34       -286       0.02       0.00       0.02      0.000
4:30pm            184          1          2         93       73.4       45.8      30.23       5.35       45.8       51.9       43.9      30.34       -286       0.02       0.00       0.02      0.000
4:31pm            184          0          2         93       73.4       45.9      30.23       5.35       45.9       52.0       44.0      30.34       -285       0.02       0.00       0.02      0.000
4:32pm            184          2          2         93       73.4       45.9      30.23       5.35       45.9       52.0       44.0      30.34       -284       0.02       0.00       0.02      0.000
4:33pm            143          1          2         93       73.4       45.9      30.23       5.35       45.9       52.0       44.0      30.34       -284       0.02       0.00       0.02      0.000
4:34pm            143          0          2         93       73.4       45.9      30.23       5.35       45.9       52.0       44.0      30.34       -283       0.02       0.00       0.02      0.000
4:35pm            143          1          1         93       73.4       45.9      30.23       5.35       45.9       52.0       44.0      30.34       -283       0.02       0.00       0.02      0.000
4:36pm            143          1          1         93       73.4       46.0      30.23       5.35       46.0       52.1       44.1      30.34       -284       0.02       0.00       0.02      0.000
4:37pm            143          1          1         93       73.4       46.0      30.23       5.35       46.0       52.1       44.1      30.34       -284       0.02       0.00       0.02      0.000
4:38pm            143          1          1         93       73.4       46.0      30.23       5.35       46.0       52.1       44.1      30.34       -285       0.02       0.00       0.02      0.000
4:39pm            142          1          2         93       73.4       46.0      30.23       5.35       46.0       52.1       44.1      30.34       -285       0.02       0.00       0.02      0.000
4:40pm            142          1          1         93       73.4       46.1      30.23       5.35       46.1       52.2       44.2      30.34       -286       0.02       0.00       0.02      0.000
4:41pm            142          1          2         93       73.4       46.1      30.23       5.35       46.1       52.2       44.2      30.34       -286       0.02       0.00       0.02      0.000
4:42pm            141          1          2         93       73.4       46.1      30.23       5.35       46.1       52.2       44.2      30.34       -285       0.02       0.00       0.02      0.000
4:43pm            142          2          2         93       73.4       46.1      30.23       5.35       46.1       52.2       44.2      30.34       -288       0.02       0.00       0.02      0.000
4:44pm            142          2          2         93       73.4       46.1      30.23       5.35       46.1       52.2       44.2      30.34       -287       0.02       0.00       0.02      0.000
4:45pm            142          2          2         93       73.4       46.2      30.23       5.35       46.2       52.3       44.3      30.34       -286       0.02       0.00       0.02      0.000
4:46pm            105          2          4         93       73.4       46.2      30.23       5.35       46.2       52.3       44.3      30.34       -286       0.02       0.00       0.02      0.000
4:47pm            108          2          3         93       73.4       46.3      30.23       5.35       46.3       52.4       44.4      30.34       -286       0.02       0.00       0.02      0.000
4:48pm            128          2          3         93       73.4       46.3      30.23       5.35       46.3       52.4       44.4      30.34       -284       0.02       0.00       0.02      0.000
4:49pm            128          2          2         93       73.4       46.3      30.23       5.35       46.3       52.4       44.4      30.34       -284       0.02       0.00       0.02      0.000
4:50pm            128          1          2         93       73.4       46.4      30.23       5.35       46.4       52.5       44.5      30.34       -284       0.02       0.00       0.02      0.000
4:51pm            128          2          3         93       73.3       46.4      30.23       5.35       46.4       52.5       44.5      30.34       -282       0.02       0.00       0.02      0.000
4:52pm             91          1          3         93       73.3       46.4      30.23       5.35       46.4       52.5       44.5      30.34       -284       0.02       0.00       0.02      0.000
4:53pm             91          1          2         93       73.4       46.5      30.23       5.35       46.5       52.6       44.6      30.34       -284       0.02       0.00       0.02      0.000
4:54pm             91          3          3         93       73.4       46.5      30.23       5.35       45.7       52.6       44.6      30.34       -283       0.02       0.00       0.02      0.000
4:55pm            150          2          3         93       73.3       46.5      30.23       5.35       46.5       52.6       44.6      30.34       -286       0.02       0.00       0.02      0.000
4:56pm            124          3          3         93       73.3       46.6      30.23       5.35       45.8       52.7       44.7      30.34       -287       0.02       0.00       0.02      0.000
4:57pm            175          2          4         93       73.3       46.6      30.23       5.35       46.6       52.7       44.7      30.34       -288       0.02       0.00       0.02      0.000
4:58pm            160          4          4         93       73.3       46.7      30.23       5.35       45.1       52.8       44.8      30.34       -288       0.02       0.00       0.02      0.000
4:59pm            160          2          4         93       73.3       46.7      30.23       5.35       46.7       52.8       44.8      30.34       -288       0.02       0.00       0.02      0.000
5:00pm            160          2          2         93       73.3       46.7      30.23       5.35       46.7       52.8       44.8      30.34       -287       0.02       0.00       0.02      0.000
5:01pm            169          2          3         93       73.3       46.7      30.23       5.35       46.7       52.8       44.8      30.34       -288       0.02       0.00       0.02      0.000
5:02pm            168          2          2         93       73.3       46.8      30.23       5.35       46.8       52.9       44.9      30.34       -285       0.02       0.00       0.02      0.000
5:03pm            160          2          3         93       73.3       46.8      30.23       5.35       46.8       52.9       44.9      30.34       -286       0.02       0.00       0.02      0.000
5:04pm            160          1          3         93       73.3       46.8      30.23       5.35       46.8       52.9       44.9      30.34       -286       0.02       0.00       0.02      0.000
5:05pm            143          2          4         93       73.3       46.9      30.23       5.35       46.9       53.0       45.0      30.34       -286       0.02       0.00       0.02      0.000
5:06pm            160          2          3         93       73.3       46.9      30.23       5.35       46.9       53.0       45.0      30.34       -287       0.02       0.00       0.02      0.000
5:07pm            155          2          3         93       73.3       46.9      30.23       5.35       46.9       53.0       45.0      30.34       -286       0.02       0.00       0.02      0.000
5:08pm            144          2          3         93       73.3       46.9      30.23       5.35       46.9       53.0       45.0      30.34       -285       0.02       0.00       0.02      0.000
5:09pm            139          2          3         93       73.3       46.9      30.23       5.35       46.9       53.0       45.0      30.34       -284       0.02       0.00       0.02      0.000
5:10pm            139          1          3         93       73.3       47.0      30.23       5.35       47.0       53.1       45.1      30.34       -282       0.02       0.00       0.02      0.000
5:11pm            139          1          2         93       73.3       47.0      30.23       5.35       47.0       53.1       45.1      30.34       -282       0.02       0.00       0.02      0.000
5:12pm            139          3          3         93       73.3       47.0      30.22       5.35       46.3       53.1       45.1      30.34       -281       0.02       0.00       0.02      0.000
5:13pm            132          2          4         93       73.3       47.0      30.22       5.35       47.0       53.1       45.1      30.33       -279       0.02       0.00       0.02      0.000
5:14pm            133          3          4         93       73.3       47.0      30.22       5.35       46.3       53.1       45.1      30.33       -278       0.02       0.00       0.02      0.000
5:15pm            127          3          3         93       73.2       47.1      30.22       5.35       46.4       53.2       45.2      30.33       -278       0.02       0.00       0.02      0.000
5:16pm            127          2          3         93       73.2       47.1      30.22       5.35       47.1       53.2       45.2      30.33       -279       0.02       0.00       0.02      0.000
5:17pm            126          2          3         93       73.2       47.1      30.22       5.35       47.1       53.2       45.2      30.33       -280       0.02       0.00       0.02      0.000
5:18pm            126          2          2         93       73.2       47.1      30.22       5.35       47.1       53.2       45.2      30.34       -281       0.02       0.00       0.02      0.000
5:19pm            120          2          2         93       73.2       47.1      30.22       5.35       47.1       53.2       45.2      30.34       -281       0.02       0.00       0.02      0.000
5:20pm            120          1          2         93       73.2       47.1      30.22       5.35       47.1       53.2       45.2      30.34       -281       0.02       0.00       0.02      0.000
5:21pm            139          3          3         93       73.2       47.2      30.23       5.35       46.5       53.3       45.3      30.34       -282       0.02       0.00       0.02      0.000
5:22pm            136          3          3         93       73.2       47.2      30.23       5.35       46.5       53.3       45.3      30.34       -283       0.02       0.00       0.02      0.000
5:23pm            136          1          3         93       73.2       47.2      30.23       5.35       47.2       53.3       45.3      30.34       -286       0.02       0.00       0.02      0.000
5:24pm            196          3          3         93       73.2       47.2      30.23       5.35       46.5       53.3       45.3      30.34       -286       0.02       0.00       0.02      0.000
5:25pm            136          3          4         93       73.2       47.2      30.23       5.35       46.5       53.3       45.3      30.34       -288       0.02       0.00       0.02      0.000
5:26pm            139          2          4         93       73.2       47.3      30.23       5.35       47.3       53.4       45.4      30.34       -286       0.02       0.00       0.02      0.000
5:27pm            146          3          3         93       73.2       47.3      30.23       5.35       46.6       53.4       45.4      30.34       -285       0.02       0.00       0.02      0.000
5:28pm            145          1          3         93       73.2       47.3      30.23       5.35       47.3       53.4       45.4      30.34       -286       0.02       0.00       0.02      0.000
5:29pm            134          1          3         93       73.2       47.3      30.23       5.35       47.3       53.4       45.4      30.34       -285       0.02       0.00       0.02      0.000
5:30pm            134          2          3         93       73.1       47.3      30.23       5.35       47.3       53.4       45.4      30.34       -283       0.02       0.00       0.02      0.000
5:31pm            134          1          3         93       73.2       47.3      30.23       5.35       47.3       53.4       45.4      30.34       -284       0.02       0.00       0.02      0.000
5:32pm            134          1          2         93       73.1       47.3      30.23       5.35       47.3       53.4       45.4      30.34       -286       0.02       0.00       0.02      0.000
5:33pm            134          1          2         93       73.1       47.4      30.23       5.35       47.4       53.5       45.5      30.34       -289       0.02       0.00       0.02      0.000
5:34pm            207          3          3         93       73.1       47.4      30.23       5.35       46.7       53.5       45.5      30.35       -290       0.02       0.00       0.02      0.000
5:35pm            194          1          3         93       73.1       47.4      30.24       5.35       47.4       53.5       45.5      30.35       -292       0.02       0.00       0.02      0.000
5:36pm            194          1          1         93       73.1       47.4      30.23       5.35       47.4       53.5       45.5      30.34       -289       0.02       0.00       0.02      0.000
5:37pm            194          0          1         93       73.1       47.4      30.23       5.35       47.4       53.5       45.5      30.34       -287       0.02       0.00       0.02      0.000
5:38pm            194          1          1         93       73.1       47.4      30.23       5.35       47.4       53.5       45.5      30.34       -287       0.02       0.00       0.02      0.000
5:39pm            194          1          2         93       73.1       47.4      30.23       5.35       47.4       53.5       45.5      30.34       -286       0.02       0.00       0.02      0.000
5:40pm            160          1          3         93       73.1       47.4      30.23       5.35       47.4       53.5       45.5      30.34       -286       0.02       0.00       0.02      0.000
5:41pm            160          2          3         93       73.1       47.4      30.23       5.35       47.4       53.5       45.5      30.34       -286       0.02       0.00       0.02      0.000
5:42pm            159          2          3         93       73.1       47.4      30.23       5.35       47.4       53.5       45.5      30.34       -286       0.02       0.00       0.02      0.000
5:43pm            159          0          3         93       73.1       47.5      30.23       5.35       47.5       53.6       45.6      30.34       -287       0.02       0.00       0.02      0.000
5:44pm            159          1          2         93       73.1       47.5      30.23       5.35       47.5       53.6       45.6      30.34       -287       0.02       0.00       0.02      0.000
5:45pm            159          0          3         93       73.1       47.5      30.23       5.35       47.5       53.6       45.6      30.34       -286       0.02       0.00       0.02      0.000
5:46pm            157          1          2         93       73.1       47.5      30.23       5.35       47.5       53.6       45.6      30.34       -285       0.02       0.00       0.02      0.000
5:47pm            157          0          1         93       73.1       47.5      30.23       5.35       47.5       53.6       45.6      30.34       -283       0.02       0.00       0.02      0.000
5:48pm            157          0          2         93       73.1       47.5      30.23       5.35       47.5       53.6       45.6      30.34       -282       0.02       0.00       0.02      0.000
5:49pm            157          1          2         93       73.1       47.5      30.23       5.35       47.5       53.6       45.6      30.34       -282       0.02       0.00       0.02      0.000
5:50pm            157          1          2         93       73.1       47.5      30.23       5.35       47.5       53.6       45.6      30.34       -282       0.02       0.00       0.02      0.000
5:51pm            157          1          2         93       73.1       47.5      30.23       5.35       47.5       53.6       45.6      30.34       -282       0.02       0.00       0.02      0.000
5:52pm            157          1          2         93       73.1       47.5      30.23       5.35       47.5       53.6       45.6      30.34       -282       0.02       0.00       0.02      0.000
5:53pm            157          2          3         93       73.1       47.6      30.23       5.35       47.6       53.7       45.7      30.34       -283       0.02       0.00       0.02      0.000
5:54pm            157          1          2         93       73.1       47.6      30.23       5.35       47.6       53.7       45.7      30.34       -284       0.02       0.00       0.02      0.000
5:55pm            157          2          3         93       73.1       47.6      30.23       5.35       47.6       53.7       45.7      30.34       -283       0.02       0.00       0.02      0.000
5:56pm            157          2          3         93       73.1       47.6      30.23       5.35       47.6       53.7       45.7      30.34       -284       0.02       0.00       0.02      0.000
5:57pm            157          1          2         93       73.1       47.6      30.23       5.35       47.6       53.7       45.7      30.34       -284       0.02       0.00       0.02      0.000
5:58pm            157          1          1         93       73.1       47.6      30.23       5.35       47.6       53.7       45.7      30.34       -284       0.02       0.00       0.02      0.000
5:59pm            157          1          2         93       73.1       47.6      30.23       5.35       47.6       53.7       45.7      30.34       -284       0.02       0.00       0.02      0.000
6:00pm            157          0          1         93       73.0       47.6      30.23       5.35       47.6       53.7       45.7      30.34       -283       0.02       0.00       0.02      0.000
6:01pm            157          0          1         93       73.0       47.6      30.23       5.35       47.6       53.7       45.7      30.34       -283       0.02       0.00       0.02      0.000
6:02pm            157          2          2         93       73.1       47.6      30.23       5.35       47.6       53.7       45.7      30.34       -282       0.02       0.00       0.02      0.000
6:03pm            157          0          2         93       73.0       47.7      30.23       5.35       47.7       53.8       45.8      30.34       -283       0.02       0.00       0.02      0.000
6:04pm            165          1          3         93       73.0       47.7      30.23       5.35       47.7       53.8       45.8      30.34       -285       0.02       0.00       0.02      0.000
6:05pm            199          3          4         93       73.0       47.7      30.23       5.35       47.1       53.8       45.8      30.34       -284       0.02       0.00       0.02      0.000
6:06pm            198          1          3         93       73.0       47.7      30.23       5.35       47.7       53.8       45.8      30.34       -284       0.02       0.00       0.02      0.000
6:07pm            198          1          2         93       73.0       47.7      30.23       5.35       47.7       53.8       45.8      30.34       -283       0.02       0.00       0.02      0.000
6:08pm            198          1          1         93       73.0       47.7      30.23       5.35       47.7       53.8       45.8      30.34       -284       0.02       0.00       0.02      0.000
6:09pm            178          4          4         93       73.0       47.7      30.23       5.35       46.2       53.8       45.8      30.34       -283       0.02       0.00       0.02      0.000
6:10pm            178          1          4         93       73.0       47.7      30.23       5.35       47.7       53.8       45.8      30.34       -284       0.02       0.00       0.02      0.000
6:11pm            172          0          1         93       73.0       47.7      30.23       5.35       47.7       53.8       45.8      30.34       -284       0.02       0.00       0.02      0.000
6:12pm            173          1          3         93       73.0       47.7      30.23       5.35       47.7       53.8       45.8      30.34       -286       0.02       0.00       0.02      0.000
6:13pm            192          3          5         93       73.0       47.8      30.23       5.35       47.2       53.9       45.9      30.34       -282       0.02       0.00       0.02      0.000
6:14pm            141          3          3         93       73.0       47.8      30.23       5.35       47.2       53.9       45.9      30.34       -282       0.02       0.00       0.02      0.000
6:15pm            151          2          3         93       73.0       47.8      30.23       5.35       47.8       53.9       45.9      30.34       -282       0.02       0.00       0.02      0.000
6:16pm            190          1          3         93       73.0       47.8      30.23       5.35       47.8       53.9       45.9      30.34       -282       0.02       0.00       0.02      0.000
6:17pm            134          2          5         93       73.0       47.8      30.23       5.35       47.8       53.9       45.9      30.34       -283       0.02       0.00       0.02      0.000
6:18pm            172          3          5         93       73.0       47.8      30.23       5.35       47.2       53.9       45.9      30.34       -282       0.02       0.00       0.02      0.000
6:19pm            172          1          3         93       73.0       47.8      30.23       5.35       47.8       53.9       45.9      30.34       -284       0.02       0.00       0.02      0.000
6:20pm            174          1          2         93       73.0       47.8      30.23       5.35       47.8       53.9       45.9      30.34       -283       0.02       0.00       0.02      0.000
6:21pm            139          3          3         93       73.0       47.8      30.23       5.35       47.2       53.9       45.9      30.34       -283       0.02       0.00       0.02      0.000
6:22pm            200          2          3         93       73.0       47.8      30.23       5.35       47.8       53.9       45.9      30.34       -282       0.02       0.00       0.02      0.000
6:23pm            219          1          3         93       73.0       47.9      30.23       5.35       47.9       54.0       46.0      30.34       -282       0.02       0.00       0.02      0.000
6:24pm            181          1          3         93       73.0       47.9      30.23       5.35       47.9       54.0       46.0      30.34       -282       0.02       0.00       0.02      0.000
6:25pm            179          1          3         93       73.0       47.9      30.22       5.35       47.9       54.0       46.0      30.34       -281       0.02       0.00       0.02      0.000
6:26pm            166          1          4         93       72.9       47.9      30.22       5.35       47.9       54.0       46.0      30.33       -280       0.02       0.00       0.02      0.000
6:27pm            190          0          3         93       73.0       47.9      30.23       5.35       47.9       54.0       46.0      30.34       -282       0.02       0.00       0.02      0.000
6:28pm            110          2          4         93       73.0       47.9      30.23       5.35       47.9       54.0       46.0      30.34       -282       0.02       0.00       0.02      0.000
6:29pm            136          0          3         93       73.0       47.9      30.22       5.35       47.9       54.0       46.0      30.34       -281       0.02       0.00       0.02      0.000
6:30pm            176          3          3         93       73.0       47.9      30.23       5.35       47.3       54.0       46.0      30.34       -282       0.02       0.00       0.02      0.000
6:31pm            205          1          4         93       73.0       47.9      30.22       5.35       47.9       54.0       46.0      30.34       -281       0.02       0.00       0.02      0.000
6:32pm            159          3          4         93       73.0       47.9      30.22       5.35       47.3       54.0       46.0      30.34       -281       0.02       0.00       0.02      0.000
6:33pm            173          1          7         93       73.0       47.9      30.22       5.35       47.9       54.0       46.0      30.33       -279       0.02       0.00       0.02      0.000
6:34pm            173          2          3         93       73.0       47.9      30.22       5.35       47.9       54.0       46.0      30.33       -277       0.02       0.00       0.02      0.000
6:35pm            173          2          2         93       73.0       47.9      30.22       5.35       47.9       54.0       46.0      30.33       -276       0.02       0.00       0.02      0.000
6:36pm            173          1          2         93       73.0       47.9      30.22       5.35       47.9       54.0       46.0      30.33       -276       0.02       0.00       0.02      0.000
6:37pm            146          2          2         93       73.0       47.9      30.22       5.35       47.9       54.0       46.0      30.33       -276       0.02       0.00       0.02      0.000
6:38pm            157          2          4         93       73.0       47.9      30.22       5.35       47.9       54.0       46.0      30.33       -275       0.02       0.00       0.02      0.000
6:39pm            160          2          2         93       73.0       47.9      30.22       5.35       47.9       54.0       46.0      30.33       -275       0.02       0.00       0.02      0.000
6:40pm            166          2          5         93       73.0       47.9      30.22       5.35       47.9       54.0       46.0      30.33       -276       0.02       0.00       0.02      0.000
6:41pm            160          2          2         93       73.0       47.9      30.22       5.35       47.9       54.0       46.0      30.33       -276       0.02       0.00       0.02      0.000
6:42pm            160          2          2         93       73.1       47.9      30.22       5.35       47.9       54.0       46.0      30.33       -276       0.02       0.00       0.02      0.000
6:43pm            160          0          2         93       73.1       47.9      30.22       5.35       47.9       54.0       46.0      30.33       -275       0.02       0.00       0.02      0.000
6:44pm            160          1          1         93       73.1       47.9      30.22       5.35       47.9       54.0       46.0      30.33       -276       0.02       0.00       0.02      0.000
6:45pm            160          2          3         93       73.1       47.9      30.22       5.35       47.9       54.0       46.0      30.33       -275       0.02       0.00       0.02      0.000
6:46pm            158          2          2         93       73.0       47.9      30.22       5.35       47.9       54.0       46.0      30.33       -274       0.02       0.00       0.02      0.000
6:47pm            153          2          2         93       73.0       47.9      30.22       5.35       47.9       54.0       46.0      30.33       -273       0.02       0.00       0.02      0.000
6:48pm            154          2          2         93       73.0       47.9      30.22       5.35       47.9       54.0       46.0      30.33       -273       0.02       0.00       0.02      0.000
6:49pm            154          1          2         93       73.0       47.9      30.22       5.35       47.9       54.0       46.0      30.33       -274       0.02       0.00       0.02      0.000
6:50pm            154          2          2         93       73.0       47.9      30.22       5.35       47.9       54.0       46.0      30.33       -273       0.02       0.00       0.02      0.000
6:51pm            204          2          3         93       73.0       47.9      30.22       5.35       47.9       54.0       46.0      30.33       -275       0.02       0.00       0.02      0.000
6:52pm            204          2          3         93       73.0       47.9      30.22       5.35       47.9       54.0       46.0      30.33       -275       0.02       0.00       0.02      0.000
6:53pm            204          0          2         93       73.0       47.9      30.22       5.35       47.9       54.0       46.0      30.33       -275       0.02       0.00       0.02      0.000
6:54pm            204          1          1         93       73.0       47.9      30.22       5.35       47.9       54.0       46.0      30.33       -276       0.02       0.00       0.02      0.000
6:55pm            204          0          2         93       73.0       47.9      30.22       5.35       47.9       54.0       46.0      30.33       -276       0.02       0.00       0.02      0.000
6:56pm            204          2          2         93       73.0       47.9      30.22       5.35       47.9       54.0       46.0      30.33       -277       0.02       0.00       0.02      0.000
6:57pm            204          1          3         93       73.0       47.9      30.22       5.35       47.9       54.0       46.0      30.33       -278       0.02       0.00       0.02      0.000
6:58pm            204          1          3         93       73.0       47.9      30.22       5.35       47.9       54.0       46.0      30.33       -278       0.02       0.00       0.02      0.000
6:59pm            199          3          3         93       73.0       47.8      30.22       5.35       47.2       53.9       45.9      30.33       -280       0.02       0.00       0.02      0.000
7:00pm            190          3          4         93       73.0       47.9      30.22       5.35       47.3       54.0       46.0      30.34       -281       0.02       0.00       0.02      0.000
7:01pm            200          2          4         93       72.9       47.9      30.22       5.35       47.9       54.0       46.0      30.34       -281       0.02       0.00       0.02      0.000
7:02pm            188          2          3         93       72.9       47.9      30.22       5.35       47.9       54.0       46.0      30.34       -281       0.02       0.00       0.02      0.000
7:03pm            189          1          2         93       72.9       47.9      30.22       5.35       47.9       54.0       46.0      30.34       -281       0.02       0.00       0.02      0.000
7:04pm            189          2          2         93       72.9       47.9      30.22       5.35       47.9       54.0       46.0      30.33       -280       0.02       0.00       0.02      0.000
7:05pm            189          1          2         93       72.9       47.9      30.22       5.35       47.9       54.0       46.0      30.33       -280       0.02       0.00       0.02      0.000
7:06pm            203          3          3         93       72.9       47.9      30.22       5.35       47.3       54.0       46.0      30.34       -281       0.02       0.00       0.02      0.000
7:07pm            203          2          3         93       72.9       47.9      30.23       5.35       47.9       54.0       46.0      30.34       -282       0.02       0.00       0.02      0.000
7:08pm            203          1          2         93       72.9       47.9      30.23       5.35       47.9       54.0       46.0      30.34       -283       0.02       0.00       0.02      0.000
7:09pm            203          0          1         93       72.9       47.9      30.23       5.35       47.9       54.0       46.0      30.34       -284       0.02       0.00       0.02      0.000
7:10pm            203          0          2         93       72.9       47.9      30.23       5.35       47.9       54.0       46.0      30.34       -284       0.02       0.00       0.02      0.000
7:11pm            203          1          2         93       72.9       47.9      30.23       5.35       47.9       54.0       46.0      30.34       -285       0.02       0.00       0.02      0.000
7:12pm            203          1          1         93       72.9       47.8      30.23       5.35       47.8       53.9       45.9      30.34       -285       0.02       0.00       0.02      0.000
7:13pm            203          1          1         93       72.9       47.9      30.23       5.35       47.9       54.0       46.0      30.34       -284       0.02       0.00       0.02      0.000
7:14pm            203          3          3         93       72.9       47.9      30.23       5.35       47.3       54.0       46.0      30.34       -285       0.02       0.00       0.02      0.000
7:15pm            203          1          3         93       72.8       47.9      30.23       5.35       47.9       54.0       46.0      30.34       -284       0.02       0.00       0.02      0.000
7:16pm            167          2          2         93       72.9       47.9      30.23       5.35       47.9       54.0       46.0      30.34       -284       0.02       0.00       0.02      0.000
7:17pm            202          1          3         93       72.9       47.8      30.23       5.35       47.8       53.9       45.9      30.34       -284       0.02       0.00       0.02      0.000
7:18pm            202          3          3         93       72.8       47.9      30.23       5.35       47.3       54.0       46.0      30.34       -283       0.02       0.00       0.02      0.000
7:19pm            191          3          3         93       72.8       47.9      30.23       5.35       47.3       54.0       46.0      30.34       -283       0.02       0.00       0.02      0.000
7:20pm            170          2          4         93       72.8       47.9      30.23       5.35       47.9       54.0       46.0      30.34       -283       0.02       0.00       0.02      0.000
7:21pm            177          3          5         93       72.8       47.9      30.23       5.35       47.3       54.0       46.0      30.34       -283       0.02       0.00       0.02      0.000
7:22pm            228          1          3         93       72.8       47.9      30.23       5.35       47.9       54.0       46.0      30.34       -283       0.02       0.00       0.02      0.000
7:23pm            214          0          3         93       72.8       47.9      30.23       5.35       47.9       54.0       46.0      30.34       -283       0.02       0.00       0.02      0.000
7:24pm            212          2          2         93       72.8       47.9      30.23       5.35       47.9       54.0       46.0      30.34       -283       0.02       0.00       0.02      0.000
7:25pm            200          3          4         93       72.8       47.9      30.23       5.35       47.3       54.0       46.0      30.34       -283       0.02       0.00       0.02      0.000
7:26pm            184          1          4         93       72.8       47.9      30.23       5.35       47.9       54.0       46.0      30.34       -283       0.02       0.00       0.02      0.000
7:27pm            184          2          2         93       72.8       47.9      30.23       5.35       47.9       54.0       46.0      30.34       -283       0.02       0.00       0.02      0.000
7:28pm            212          2          4         93       72.8       47.9      30.23       5.35       47.9       54.0       46.0      30.34       -284       0.02       0.00       0.02      0.000
7:29pm            203          3          4         93       72.8       47.9      30.23       5.35       47.3       54.0       46.0      30.34       -285       0.02       0.00       0.02      0.000
7:30pm            208          4          5         93       72.8       47.9      30.23       5.35       46.4       54.0       46.0      30.34       -285       0.02       0.00       0.02      0.000
7:31pm            200          4          4         93       72.8       47.9      30.23       5.35       46.4       54.0       46.0      30.34       -285       0.02       0.00       0.02      0.000
7:32pm            186          2          6         93       72.7       47.9      30.23       5.35       47.9       54.0       46.0      30.34       -285       0.02       0.00       0.02      0.000
7:33pm            204          4          4         93       72.8       47.9      30.23       5.35       46.4       54.0       46.0      30.34       -286       0.02       0.00       0.02      0.000
7:34pm            199          5          8         93       72.7       47.9      30.23       5.35       45.8       54.0       46.0      30.34       -287       0.02       0.00       0.02      0.000
7:35pm            187          3          5         93       72.7       47.9      30.23       5.35       47.3       54.0       46.0      30.34       -287       0.02       0.00       0.02      0.000
7:36pm            181          3          4         93       72.7       48.0      30.23       5.35       47.4       54.1       46.1      30.34       -287       0.02       0.00       0.02      0.000
7:37pm            189          3          3         93       72.7       48.0      30.23       5.35       47.4       54.1       46.1      30.34       -286       0.02       0.00       0.02      0.000
7:38pm            188          4          5         93       72.8       48.0      30.23       5.35       46.6       54.1       46.1      30.34       -287       0.02       0.00       0.02      0.000
7:39pm            200          3          4         93       72.7       48.0      30.23       5.35       47.4       54.1       46.1      30.34       -287       0.02       0.00       0.02      0.000
7:40pm            238          3          5         93       72.7       48.0      30.23       5.35       47.4       54.1       46.1      30.34       -288       0.02       0.00       0.02      0.000
7:41pm            208          4          4         93       72.7       48.0      30.23       5.35       46.6       54.1       46.1      30.34       -287       0.02       0.00       0.02      0.000
7:42pm            197          3          5         93       72.7       48.0      30.23       5.35       47.4       54.1       46.1      30.34       -289       0.02       0.00       0.02      0.000
7:43pm            157          2          3         93       72.7       48.0      30.23       5.35       48.0       54.1       46.1      30.34       -289       0.02       0.00       0.02      0.000
7:44pm            179          2          5         93       72.7       48.0      30.23       5.35       48.0       54.1       46.1      30.34       -288       0.02       0.00       0.02      0.000
7:45pm            181          5          5         93       72.7       48.0      30.23       5.35       45.9       54.1       46.1      30.34       -288       0.02       0.00       0.02      0.000
7:46pm            186          2          5         93       72.7       48.0      30.23       5.35       48.0       54.1       46.1      30.34       -287       0.02       0.00       0.02      0.000
7:47pm            189          3          5         93       72.7       48.0      30.23       5.35       47.4       54.1       46.1      30.34       -288       0.02       0.00       0.02      0.000
7:48pm            194          5          5         93       72.7       48.0      30.23       5.35       45.9       54.1       46.1      30.34       -286       0.02       0.00       0.02      0.000
7:49pm            230          2          5         93       72.7       48.0      30.23       5.35       48.0       54.1       46.1      30.34       -285       0.02       0.00       0.02      0.000
7:50pm            195          1          2         93       72.7       48.0      30.23       5.35       48.0       54.1       46.1      30.34       -285       0.02       0.00       0.02      0.000
7:51pm            200          1          3         93       72.7       48.0      30.23       5.35       48.0       54.1       46.1      30.34       -285       0.02       0.00       0.02      0.000
7:52pm            188          0          4         93       72.7       48.0      30.23       5.35       48.0       54.1       46.1      30.34       -284       0.02       0.00       0.02      0.000
7:53pm            188          1          1         93       72.7       48.0      30.23       5.35       48.0       54.1       46.1      30.34       -284       0.02       0.00       0.02      0.000
7:54pm            226          4          5         93       72.7       48.0      30.23       5.35       46.6       54.1       46.1      30.34       -283       0.02       0.00       0.02      0.000
7:55pm            184          4          4         93       72.7       48.0      30.23       5.35       46.6       54.1       46.1      30.34       -283       0.02       0.00       0.02      0.000
7:56pm            176          4          5         93       72.7       48.0      30.23       5.35       46.6       54.1       46.1      30.34       -282       0.02       0.00       0.02      0.000
7:57pm            181          0          4         93       72.7       48.0      30.23       5.35       48.0       54.1       46.1      30.34       -282       0.02       0.00       0.02      0.000
7:58pm            181          1          2         93       72.7       48.0      30.22       5.35       48.0       54.1       46.1      30.34       -281       0.02       0.00       0.02      0.000
7:59pm            135          1          4         93       72.7       48.0      30.22       5.35       48.0       54.1       46.1      30.33       -280       0.02       0.00       0.02      0.000
8:00pm            149          1          4         93       72.7       48.0      30.22       5.35       48.0       54.1       46.1      30.33       -280       0.02       0.00       0.02      0.000
8:01pm            149          0          2         93       72.7       48.0      30.22       5.35       48.0       54.1       46.1      30.33       -279       0.02       0.00       0.02      0.000
8:02pm            186          3          3         93       72.7       48.0      30.22       5.35       47.4       54.1       46.1      30.33       -279       0.02       0.00       0.02      0.000
8:03pm            178          2          4         93       72.7       48.0      30.22       5.35       48.0       54.1       46.1      30.33       -280       0.02       0.00       0.02      0.000
8:04pm            131          1          4         93       72.7       48.0      30.22       5.35       48.0       54.1       46.1      30.33       -279       0.02       0.00       0.02      0.000
8:05pm            180          1          3         93       72.7       48.0      30.22       5.35       48.0       54.1       46.1      30.33       -279       0.02       0.00       0.02      0.000
8:06pm            175          2          2         93       72.7       48.1      30.22       5.35       48.1       54.2       46.2      30.33       -279       0.02       0.00       0.02      0.000
8:07pm            169          2          3         93       72.7       48.0      30.22       5.35       48.0       54.1       46.1      30.33       -280       0.02       0.00       0.02      0.000
8:08pm            211          2          3         93       72.7       48.0      30.22       5.35       48.0       54.1       46.1      30.33       -278       0.02       0.00       0.02      0.000
8:09pm            154          3          3         93       72.7       48.0      30.22       5.35       47.4       54.1       46.1      30.33       -279       0.02       0.00       0.02      0.000
8:10pm            154          1          3         93       72.7       48.1      30.22       5.35       48.1       54.2       46.2      30.33       -279       0.02       0.00       0.02      0.000
8:11pm            146          2          3         93       72.7       48.1      30.22       5.35       48.1       54.2       46.2      30.33       -278       0.02       0.00       0.02      0.000
8:12pm            152          2          2         93       72.7       48.1      30.22       5.35       48.1       54.2       46.2      30.33       -278       0.02       0.00       0.02      0.000
8:13pm            152          0          2         93       72.7       48.1      30.22       5.35       48.1       54.2       46.2      30.33       -280       0.02       0.00       0.02      0.000
8:14pm            153          1          2         93       72.7       48.1      30.22       5.35       48.1       54.2       46.2      30.33       -279       0.02       0.00       0.02      0.000
8:15pm            152          1          3         93       72.7       48.1      30.22       5.35       48.1       54.2       46.2      30.33       -278       0.02       0.00       0.02      0.000
8:16pm            152          2          2         93       72.7       48.1      30.22       5.35       48.1       54.2       46.2      30.33       -279       0.02       0.00       0.02      0.000
8:17pm            193          4          4         93       72.7       48.1      30.22       5.35       46.7       54.2       46.2      30.33       -278       0.02       0.00       0.02      0.000
8:18pm            193          3          6         93       72.7       48.1      30.22       5.35       47.5       54.2       46.2      30.33       -278       0.02       0.00       0.02      0.000
8:19pm            122          3          3         93       72.7       48.1      30.22       5.35       47.5       54.2       46.2      30.33       -277       0.02       0.00       0.02      0.000
8:20pm            153          3          4         93       72.7       48.1      30.22       5.35       47.5       54.2       46.2      30.33       -277       0.02       0.00       0.02      0.000
8:21pm            149          2          3         93       72.7       48.1      30.22       5.35       48.1       54.2       46.2      30.33       -277       0.02       0.00       0.02      0.000
8:22pm            148          1          3         93       72.7       48.1      30.22       5.35       48.1       54.2       46.2      30.33       -278       0.02       0.00       0.02      0.000
8:23pm            202          2          2         93       72.7       48.1      30.22       5.35       48.1       54.2       46.2      30.33       -278       0.02       0.00       0.02      0.000
8:24pm            200          5          6         93       72.6       48.1      30.22       5.35       46.0       54.2       46.2      30.33       -277       0.02       0.00       0.02      0.000
8:25pm            201          2          5         93       72.6       48.1      30.22       5.35       48.1       54.2       46.2      30.33       -278       0.02       0.00       0.02      0.000
8:26pm            185          1          4         93       72.6       48.1      30.22       5.35       48.1       54.2       46.2      30.33       -279       0.02       0.00       0.02      0.000
8:27pm            198          1          3         93       72.6       48.1      30.22       5.35       48.1       54.2       46.2      30.33       -280       0.02       0.00       0.02      0.000
8:28pm            193          1          2         93       72.7       48.1      30.23       5.35       48.1       54.2       46.2      30.34       -282       0.02       0.00       0.02      0.000
8:29pm            193          0          2         93       72.7       48.1      30.23       5.35       48.1       54.2       46.2      30.34       -282       0.02       0.00       0.02      0.000
8:30pm            202          2          2         93       72.6       48.1      30.23       5.35       48.1       54.2       46.2      30.34       -282       0.02       0.00       0.02      0.000
8:31pm            141          2          4         93       72.6       48.1      30.23       5.35       48.1       54.2       46.2      30.34       -282       0.02       0.00       0.02      0.000
8:32pm            195          2          4         93       72.6       48.1      30.23       5.35       48.1       54.2       46.2      30.34       -282       0.02       0.00       0.02      0.000
8:33pm            169          3          3         93       72.7       48.1      30.23       5.35       47.5       54.2       46.2      30.34       -282       0.02       0.00       0.02      0.000
8:34pm            155          2          3         93       72.7       48.1      30.23       5.35       48.1       54.2       46.2      30.34       -282       0.02       0.00       0.02      0.000
8:35pm            154          1          3         93       72.6       48.1      30.23       5.35       48.1       54.2       46.2      30.34       -283       0.02       0.00       0.02      0.000
8:36pm            174          3          4         93       72.7       48.1      30.23       5.35       47.5       54.2       46.2      30.34       -283       0.02       0.00       0.02      0.000
8:37pm            138          1          4         93       72.6       48.2      30.23       5.35       48.2       54.3       46.3      30.34       -284       0.02       0.00       0.02      0.000
8:38pm            201          3          3         93       72.6       48.2      30.23       5.35       47.6       54.3       46.3      30.34       -286       0.02       0.00       0.02      0.000
8:39pm            199          8          8         93       72.6       48.2      30.23       5.35       44.6       54.3       46.3      30.34       -286       0.02       0.00       0.02      0.000
8:40pm            179          5          9         93       72.7       48.2      30.23       5.35       46.1       54.3       46.3      30.34       -285       0.02       0.00       0.02      0.000
8:41pm            185          3          5         93       72.7       48.2      30.23       5.35       47.6       54.3       46.3      30.34       -286       0.02       0.00       0.02      0.000
8:42pm            164          2          4         93       72.7       48.2      30.23       5.35       48.2       54.3       46.3      30.34       -286       0.02       0.00       0.02      0.000
8:43pm            192          3          5         93       72.6       48.2      30.23       5.35       47.6       54.3       46.3      30.34       -286       0.02       0.00       0.02      0.000
8:44pm            174          2          5         93       72.6       48.2      30.23       5.35       48.2       54.3       46.3      30.34       -287       0.02       0.00       0.02      0.000

Updated Automatically by Ambient Weather's Virtual Weather Station  V15.00
All rights reserved. Unauthorized duplication or distribution is prohibited
Never base important decisions on this or any weather information obtained from the Internet